Wetterdaten: Dienstag, 21.06.2016
Datum Zeit Temp. A. Feuchte A. Luftdruck Regen Wind Richtung Richtung Sonnenschein ET UV Solar Taupunkt Windchill Windben Empfang
21.06.2016 00:00 12,7 C 95 % 1019,6 hPa 0,0 l/m 5,4 km/h (1 Bft) O-NO 67 0 min 0,000 mm 0,0 UV-I 0 W/m 11,9 C 12,7 C 6,4 km/h (2 Bft) 100,00 %
21.06.2016 00:02 12,8 C 96 % 1019,6 hPa 0,0 l/m 5,5 km/h (1 Bft) O-NO 75 0 min 0,000 mm 0,0 UV-I 0 W/m 12,2 C 12,8 C 8,0 km/h (2 Bft) 100,00 %
21.06.2016 00:04 12,8 C 96 % 1019,6 hPa 0,0 l/m 4,7 km/h (1 Bft) O-NO 78 0 min 0,000 mm 0,0 UV-I 0 W/m 12,2 C 12,8 C 6,4 km/h (2 Bft) 100,00 %
21.06.2016 00:06 12,9 C 96 % 1019,6 hPa 0,0 l/m 5,9 km/h (2 Bft) O 80 0 min 0,000 mm 0,0 UV-I 0 W/m 12,3 C 12,9 C 8,0 km/h (2 Bft) 100,00 %
21.06.2016 00:08 12,9 C 96 % 1019,6 hPa 0,0 l/m 5,1 km/h (1 Bft) O 84 0 min 0,000 mm 0,0 UV-I 0 W/m 12,3 C 12,9 C 6,4 km/h (2 Bft) 100,00 %
21.06.2016 00:10 12,9 C 96 % 1019,6 hPa 0,0 l/m 5,9 km/h (2 Bft) O-NO 66 0 min 0,000 mm 0,0 UV-I 0 W/m 12,3 C 12,9 C 6,4 km/h (2 Bft) 100,00 %
21.06.2016 00:12 12,9 C 96 % 1019,7 hPa 0,0 l/m 5,4 km/h (1 Bft) O 80 0 min 0,000 mm 0,0 UV-I 0 W/m 12,3 C 12,9 C 8,0 km/h (2 Bft) 95,12 %
21.06.2016 00:14 13,0 C 96 % 1019,7 hPa 0,0 l/m 5,6 km/h (1 Bft) O-NO 76 0 min 0,000 mm 0,0 UV-I 0 W/m 12,4 C 13,0 C 8,0 km/h (2 Bft) 98,00 %
21.06.2016 00:16 13,0 C 96 % 1019,7 hPa 0,0 l/m 4,1 km/h (1 Bft) O-NO 76 0 min 0,000 mm 0,0 UV-I 0 W/m 12,4 C 13,0 C 6,4 km/h (2 Bft) 100,00 %
21.06.2016 00:18 13,1 C 96 % 1019,7 hPa 0,0 l/m 3,6 km/h (1 Bft) O-NO 76 0 min 0,000 mm 0,0 UV-I 0 W/m 12,5 C 13,1 C 4,8 km/h (1 Bft) 100,00 %
21.06.2016 00:20 13,0 C 96 % 1019,6 hPa 0,0 l/m 4,2 km/h (1 Bft) O-NO 67 0 min 0,000 mm 0,0 UV-I 0 W/m 12,4 C 13,0 C 4,8 km/h (1 Bft) 100,00 %
21.06.2016 00:22 13,0 C 96 % 1019,6 hPa 0,0 l/m 3,3 km/h (1 Bft) O-NO 67 0 min 0,000 mm 0,0 UV-I 0 W/m 12,4 C 13,0 C 4,8 km/h (1 Bft) 100,00 %
21.06.2016 00:24 13,0 C 96 % 1019,7 hPa 0,0 l/m 3,3 km/h (1 Bft) O-NO 67 0 min 0,000 mm 0,0 UV-I 0 W/m 12,4 C 13,0 C 4,8 km/h (1 Bft) 100,00 %
21.06.2016 00:26 12,9 C 96 % 1019,7 hPa 0,0 l/m 2,4 km/h (1 Bft) O-NO 67 0 min 0,000 mm 0,0 UV-I 0 W/m 12,3 C 12,9 C 3,2 km/h (1 Bft) 100,00 %
21.06.2016 00:28 12,9 C 95 % 1019,7 hPa 0,0 l/m 2,6 km/h (1 Bft) O-NO 67 0 min 0,000 mm 0,0 UV-I 0 W/m 12,1 C 12,9 C 3,2 km/h (1 Bft) 100,00 %
21.06.2016 00:30 12,9 C 95 % 1019,7 hPa 0,0 l/m 2,3 km/h (1 Bft) O-NO 67 0 min 0,000 mm 0,0 UV-I 0 W/m 12,1 C 12,9 C 3,2 km/h (1 Bft) 100,00 %
21.06.2016 00:32 12,8 C 95 % 1019,8 hPa 0,0 l/m 1,1 km/h (1 Bft) O-NO 67 0 min 0,000 mm 0,0 UV-I 0 W/m 12,0 C 12,8 C 3,2 km/h (1 Bft) 100,00 %
21.06.2016 00:34 12,8 C 95 % 1019,8 hPa 0,0 l/m 0,0 km/h (0 Bft) O-NO 67 0 min 0,000 mm 0,0 UV-I 0 W/m 12,0 C 12,8 C 0,0 km/h (0 Bft) 100,00 %
21.06.2016 00:36 12,7 C 95 % 1019,7 hPa 0,0 l/m 0,1 km/h (0 Bft) O-NO 67 0 min 0,000 mm 0,0 UV-I 0 W/m 11,9 C 12,7 C 1,6 km/h (1 Bft) 100,00 %
21.06.2016 00:38 12,7 C 95 % 1019,7 hPa 0,0 l/m 0,3 km/h (0 Bft) O-NO 67 0 min 0,000 mm 0,0 UV-I 0 W/m 11,9 C 12,7 C 1,6 km/h (1 Bft) 100,00 %
21.06.2016 00:40 12,7 C 95 % 1019,7 hPa 0,0 l/m 0,0 km/h (0 Bft) O-NO 67 0 min 0,000 mm 0,0 UV-I 0 W/m 11,9 C 12,7 C 1,6 km/h (1 Bft) 97,87 %
21.06.2016 00:42 12,6 C 95 % 1019,7 hPa 0,0 l/m 0,0 km/h (0 Bft) O-NO 67 0 min 0,000 mm 0,0 UV-I 0 W/m 11,8 C 12,6 C 0,0 km/h (0 Bft) 100,00 %
21.06.2016 00:44 12,6 C 94 % 1019,6 hPa 0,0 l/m 0,1 km/h (0 Bft) O-NO 67 0 min 0,000 mm 0,0 UV-I 0 W/m 11,7 C 12,6 C 1,6 km/h (1 Bft) 97,87 %
21.06.2016 00:46 12,6 C 94 % 1019,7 hPa 0,0 l/m 0,0 km/h (0 Bft) O-NO 67 0 min 0,000 mm 0,0 UV-I 0 W/m 11,7 C 12,6 C 1,6 km/h (1 Bft) 100,00 %
21.06.2016 00:48 12,5 C 94 % 1019,7 hPa 0,0 l/m 0,0 km/h (0 Bft) O-NO 67 0 min 0,000 mm 0,0 UV-I 0 W/m 11,6 C 12,5 C 0,0 km/h (0 Bft) 100,00 %
21.06.2016 00:50 12,4 C 94 % 1019,7 hPa 0,0 l/m 0,0 km/h (0 Bft) O-NO 67 0 min 0,000 mm 0,0 UV-I 0 W/m 11,5 C 12,4 C 0,0 km/h (0 Bft) 95,74 %
21.06.2016 00:52 12,4 C 94 % 1019,7 hPa 0,0 l/m 0,2 km/h (0 Bft) O-NO 67 0 min 0,000 mm 0,0 UV-I 0 W/m 11,5 C 12,4 C 1,6 km/h (1 Bft) 100,00 %
21.06.2016 00:54 12,3 C 94 % 1019,7 hPa 0,0 l/m 1,0 km/h (0 Bft) O-NO 67 0 min 0,000 mm 0,0 UV-I 0 W/m 11,4 C 12,3 C 1,6 km/h (1 Bft) 97,87 %
21.06.2016 00:56 12,3 C 94 % 1019,6 hPa 0,0 l/m 0,0 km/h (0 Bft) O-NO 67 0 min 0,000 mm 0,0 UV-I 0 W/m 11,4 C 12,3 C 1,6 km/h (1 Bft) 100,00 %
21.06.2016 00:58 12,3 C 94 % 1019,6 hPa 0,0 l/m 0,0 km/h (0 Bft) O-NO 67 0 min 0,000 mm 0,0 UV-I 0 W/m 11,4 C 12,3 C 0,0 km/h (0 Bft) 100,00 %
21.06.2016 01:00 12,2 C 93 % 1019,6 hPa 0,0 l/m 0,0 km/h (0 Bft) O-NO 67 0 min 0,000 mm 0,0 UV-I 0 W/m 11,1 C 12,2 C 1,6 km/h (1 Bft) 100,00 %
21.06.2016 01:02 12,2 C 94 % 1019,6 hPa 0,0 l/m 0,0 km/h (0 Bft) O-NO 67 0 min 0,000 mm 0,0 UV-I 0 W/m 11,3 C 12,2 C 0,0 km/h (0 Bft) 97,87 %
21.06.2016 01:04 12,1 C 93 % 1019,6 hPa 0,0 l/m 0,0 km/h (0 Bft) O-NO 67 0 min 0,000 mm 0,0 UV-I 0 W/m 11,0 C 12,1 C 0,0 km/h (0 Bft) 95,74 %
21.06.2016 01:06 12,1 C 93 % 1019,6 hPa 0,0 l/m 0,4 km/h (0 Bft) O-NO 67 0 min 0,000 mm 0,0 UV-I 0 W/m 11,0 C 12,1 C 1,6 km/h (1 Bft) 97,87 %
21.06.2016 01:08 12,0 C 93 % 1019,6 hPa 0,0 l/m 0,2 km/h (0 Bft) O-NO 67 0 min 0,000 mm 0,0 UV-I 0 W/m 10,9 C 12,0 C 1,6 km/h (1 Bft) 98,00 %
21.06.2016 01:10 11,9 C 93 % 1019,7 hPa 0,0 l/m 0,3 km/h (0 Bft) O-NO 67 0 min 0,000 mm 0,0 UV-I 0 W/m 10,8 C 11,9 C 1,6 km/h (1 Bft) 97,87 %
21.06.2016 01:12 11,9 C 93 % 1019,6 hPa 0,0 l/m 0,1 km/h (0 Bft) O-NO 67 0 min 0,000 mm 0,0 UV-I 0 W/m 10,8 C 11,9 C 1,6 km/h (1 Bft) 98,00 %
21.06.2016 01:14 11,8 C 93 % 1019,6 hPa 0,0 l/m 0,6 km/h (0 Bft) O-NO 67 0 min 0,000 mm 0,0 UV-I 0 W/m 10,7 C 11,8 C 1,6 km/h (1 Bft) 95,74 %
21.06.2016 01:16 11,8 C 93 % 1019,6 hPa 0,0 l/m 0,7 km/h (0 Bft) O-NO 67 0 min 0,000 mm 0,0 UV-I 0 W/m 10,7 C 11,8 C 1,6 km/h (1 Bft) 97,87 %
21.06.2016 01:18 11,7 C 93 % 1019,6 hPa 0,0 l/m 1,9 km/h (1 Bft) O-NO 67 0 min 0,000 mm 0,0 UV-I 0 W/m 10,6 C 11,7 C 3,2 km/h (1 Bft) 97,22 %
21.06.2016 01:20 11,7 C 93 % 1019,7 hPa 0,0 l/m 2,4 km/h (1 Bft) O-NO 67 0 min 0,000 mm 0,0 UV-I 0 W/m 10,6 C 11,7 C 3,2 km/h (1 Bft) 98,00 %
21.06.2016 01:22 11,7 C 93 % 1019,7 hPa 0,0 l/m 3,8 km/h (1 Bft) S-SW 192 0 min 0,000 mm 0,0 UV-I 0 W/m 10,6 C 11,7 C 6,4 km/h (2 Bft) 97,87 %
21.06.2016 01:24 11,6 C 94 % 1019,7 hPa 0,0 l/m 4,3 km/h (1 Bft) SW 224 0 min 0,000 mm 0,0 UV-I 0 W/m 10,7 C 11,6 C 6,4 km/h (2 Bft) 95,74 %
21.06.2016 01:26 11,6 C 94 % 1019,7 hPa 0,0 l/m 5,1 km/h (1 Bft) SW 224 0 min 0,000 mm 0,0 UV-I 0 W/m 10,7 C 11,6 C 6,4 km/h (2 Bft) 96,00 %
21.06.2016 01:28 11,6 C 94 % 1019,8 hPa 0,0 l/m 4,4 km/h (1 Bft) S-SW 208 0 min 0,000 mm 0,0 UV-I 0 W/m 10,7 C 11,6 C 6,4 km/h (2 Bft) 97,87 %
21.06.2016 01:30 11,6 C 94 % 1019,8 hPa 0,0 l/m 3,7 km/h (1 Bft) S-SW 208 0 min 0,000 mm 0,0 UV-I 0 W/m 10,7 C 11,6 C 4,8 km/h (1 Bft) 93,62 %
21.06.2016 01:32 11,6 C 94 % 1019,8 hPa 0,0 l/m 2,2 km/h (1 Bft) S-SW 208 0 min 0,000 mm 0,0 UV-I 0 W/m 10,7 C 11,6 C 4,8 km/h (1 Bft) 93,62 %
21.06.2016 01:34 11,6 C 94 % 1019,8 hPa 0,0 l/m 0,8 km/h (0 Bft) S-SW 208 0 min 0,000 mm 0,0 UV-I 0 W/m 10,7 C 11,6 C 3,2 km/h (1 Bft) 97,87 %
21.06.2016 01:36 11,6 C 94 % 1019,8 hPa 0,0 l/m 0,5 km/h (0 Bft) S-SW 208 0 min 0,000 mm 0,0 UV-I 0 W/m 10,7 C 11,6 C 1,6 km/h (1 Bft) 95,74 %
21.06.2016 01:38 11,6 C 94 % 1019,8 hPa 0,0 l/m 0,8 km/h (0 Bft) S-SW 208 0 min 0,000 mm 0,0 UV-I 0 W/m 10,7 C 11,6 C 1,6 km/h (1 Bft) 96,00 %
21.06.2016 01:40 11,6 C 94 % 1019,8 hPa 0,0 l/m 1,3 km/h (1 Bft) S-SW 208 0 min 0,000 mm 0,0 UV-I 0 W/m 10,7 C 11,6 C 3,2 km/h (1 Bft) 97,87 %
21.06.2016 01:42 11,5 C 94 % 1019,8 hPa 0,0 l/m 1,1 km/h (1 Bft) S-SW 208 0 min 0,000 mm 0,0 UV-I 0 W/m 10,6 C 11,5 C 1,6 km/h (1 Bft) 97,87 %
21.06.2016 01:44 11,5 C 94 % 1019,8 hPa 0,0 l/m 0,2 km/h (0 Bft) S-SW 208 0 min 0,000 mm 0,0 UV-I 0 W/m 10,6 C 11,5 C 1,6 km/h (1 Bft) 97,87 %
21.06.2016 01:46 11,5 C 95 % 1019,8 hPa 0,0 l/m 0,8 km/h (0 Bft) S-SW 208 0 min 0,000 mm 0,0 UV-I 0 W/m 10,7 C 11,5 C 3,2 km/h (1 Bft) 100,00 %
21.06.2016 01:48 11,4 C 95 % 1019,9 hPa 0,0 l/m 2,0 km/h (1 Bft) S-SW 208 0 min 0,000 mm 0,0 UV-I 0 W/m 10,6 C 11,4 C 3,2 km/h (1 Bft) 97,87 %
21.06.2016 01:50 11,4 C 95 % 1019,8 hPa 0,0 l/m 2,1 km/h (1 Bft) S-SW 208 0 min 0,000 mm 0,0 UV-I 0 W/m 10,6 C 11,4 C 3,2 km/h (1 Bft) 100,00 %
21.06.2016 01:52 11,4 C 95 % 1019,8 hPa 0,0 l/m 2,0 km/h (1 Bft) S-SW 208 0 min 0,000 mm 0,0 UV-I 0 W/m 10,6 C 11,4 C 3,2 km/h (1 Bft) 98,36 %
21.06.2016 01:54 11,4 C 95 % 1019,8 hPa 0,0 l/m 1,0 km/h (0 Bft) S-SW 208 0 min 0,000 mm 0,0 UV-I 0 W/m 10,6 C 11,4 C 3,2 km/h (1 Bft) 97,92 %
21.06.2016 01:56 11,4 C 95 % 1019,8 hPa 0,0 l/m 1,2 km/h (1 Bft) S-SW 208 0 min 0,000 mm 0,0 UV-I 0 W/m 10,6 C 11,4 C 3,2 km/h (1 Bft) 100,00 %
21.06.2016 01:58 11,3 C 95 % 1019,8 hPa 0,0 l/m 0,9 km/h (0 Bft) S-SW 197 0 min 0,000 mm 0,0 UV-I 0 W/m 10,5 C 11,3 C 1,6 km/h (1 Bft) 93,62 %
21.06.2016 02:00 11,3 C 95 % 1019,8 hPa 0,0 l/m 1,0 km/h (0 Bft) S-SW 197 0 min 0,000 mm 0,0 UV-I 0 W/m 10,5 C 11,3 C 3,2 km/h (1 Bft) 100,00 %
21.06.2016 02:02 11,3 C 95 % 1019,8 hPa 0,0 l/m 2,0 km/h (1 Bft) S 182 0 min 0,000 mm 0,0 UV-I 0 W/m 10,5 C 11,3 C 3,2 km/h (1 Bft) 95,74 %
21.06.2016 02:04 11,3 C 95 % 1019,8 hPa 0,0 l/m 3,7 km/h (1 Bft) S 177 0 min 0,000 mm 0,0 UV-I 0 W/m 10,5 C 11,3 C 4,8 km/h (1 Bft) 97,87 %
21.06.2016 02:06 11,3 C 95 % 1019,8 hPa 0,0 l/m 3,6 km/h (1 Bft) S 173 0 min 0,000 mm 0,0 UV-I 0 W/m 10,5 C 11,3 C 4,8 km/h (1 Bft) 100,00 %
21.06.2016 02:08 11,3 C 95 % 1019,8 hPa 0,0 l/m 2,0 km/h (1 Bft) S 173 0 min 0,000 mm 0,0 UV-I 0 W/m 10,5 C 11,3 C 3,2 km/h (1 Bft) 97,37 %
21.06.2016 02:10 11,4 C 95 % 1019,8 hPa 0,0 l/m 0,8 km/h (0 Bft) S 173 0 min 0,000 mm 0,0 UV-I 0 W/m 10,6 C 11,4 C 1,6 km/h (1 Bft) 100,00 %
21.06.2016 02:12 11,4 C 95 % 1019,7 hPa 0,0 l/m 0,6 km/h (0 Bft) S 173 0 min 0,000 mm 0,0 UV-I 0 W/m 10,6 C 11,4 C 1,6 km/h (1 Bft) 100,00 %
21.06.2016 02:14 11,3 C 95 % 1019,7 hPa 0,0 l/m 1,6 km/h (1 Bft) S 171 0 min 0,000 mm 0,0 UV-I 0 W/m 10,5 C 11,3 C 3,2 km/h (1 Bft) 95,74 %
21.06.2016 02:16 11,3 C 96 % 1019,8 hPa 0,0 l/m 3,8 km/h (1 Bft) S-SO 162 0 min 0,000 mm 0,0 UV-I 0 W/m 10,7 C 11,3 C 6,4 km/h (2 Bft) 100,00 %
21.06.2016 02:18 11,3 C 96 % 1019,7 hPa 0,0 l/m 5,1 km/h (1 Bft) S-SO 162 0 min 0,000 mm 0,0 UV-I 0 W/m 10,7 C 11,3 C 6,4 km/h (2 Bft) 100,00 %
21.06.2016 02:20 11,3 C 96 % 1019,7 hPa 0,0 l/m 4,5 km/h (1 Bft) S-SO 161 0 min 0,000 mm 0,0 UV-I 0 W/m 10,7 C 11,3 C 6,4 km/h (2 Bft) 100,00 %
21.06.2016 02:22 11,3 C 96 % 1019,7 hPa 0,0 l/m 4,1 km/h (1 Bft) S-SO 161 0 min 0,000 mm 0,0 UV-I 0 W/m 10,7 C 11,3 C 6,4 km/h (2 Bft) 97,87 %
21.06.2016 02:24 11,3 C 96 % 1019,6 hPa 0,0 l/m 2,3 km/h (1 Bft) S-SO 161 0 min 0,000 mm 0,0 UV-I 0 W/m 10,7 C 11,3 C 3,2 km/h (1 Bft) 100,00 %
21.06.2016 02:26 11,3 C 96 % 1019,6 hPa 0,0 l/m 0,4 km/h (0 Bft) S-SO 161 0 min 0,000 mm 0,0 UV-I 0 W/m 10,7 C 11,3 C 1,6 km/h (1 Bft) 100,00 %
21.06.2016 02:28 11,3 C 96 % 1019,6 hPa 0,0 l/m 1,8 km/h (1 Bft) S-SO 161 0 min 0,000 mm 0,0 UV-I 0 W/m 10,7 C 11,3 C 3,2 km/h (1 Bft) 97,87 %
21.06.2016 02:30 11,3 C 96 % 1019,6 hPa 0,0 l/m 0,1 km/h (0 Bft) S-SO 161 0 min 0,000 mm 0,0 UV-I 0 W/m 10,7 C 11,3 C 1,6 km/h (1 Bft) 100,00 %
21.06.2016 02:32 11,3 C 96 % 1019,5 hPa 0,0 l/m 1,8 km/h (1 Bft) S-SO 161 0 min 0,000 mm 0,0 UV-I 0 W/m 10,7 C 11,3 C 3,2 km/h (1 Bft) 100,00 %
21.06.2016 02:34 11,2 C 96 % 1019,5 hPa 0,0 l/m 3,6 km/h (1 Bft) S-SO 161 0 min 0,000 mm 0,0 UV-I 0 W/m 10,6 C 11,2 C 6,4 km/h (2 Bft) 100,00 %
21.06.2016 02:36 11,2 C 96 % 1019,6 hPa 0,0 l/m 3,9 km/h (1 Bft) S-SO 162 0 min 0,000 mm 0,0 UV-I 0 W/m 10,6 C 11,2 C 6,4 km/h (2 Bft) 100,00 %
21.06.2016 02:38 11,2 C 96 % 1019,6 hPa 0,0 l/m 1,1 km/h (1 Bft) S-SO 162 0 min 0,000 mm 0,0 UV-I 0 W/m 10,6 C 11,2 C 3,2 km/h (1 Bft) 100,00 %
21.06.2016 02:40 11,2 C 96 % 1019,6 hPa 0,0 l/m 0,6 km/h (0 Bft) S-SO 162 0 min 0,000 mm 0,0 UV-I 0 W/m 10,6 C 11,2 C 3,2 km/h (1 Bft) 100,00 %
21.06.2016 02:42 11,2 C 96 % 1019,6 hPa 0,0 l/m 2,0 km/h (1 Bft) S-SO 162 0 min 0,000 mm 0,0 UV-I 0 W/m 10,6 C 11,2 C 3,2 km/h (1 Bft) 100,00 %
21.06.2016 02:44 11,1 C 95 % 1019,6 hPa 0,0 l/m 2,0 km/h (1 Bft) S-SO 162 0 min 0,000 mm 0,0 UV-I 0 W/m 10,3 C 11,1 C 3,2 km/h (1 Bft) 97,87 %
21.06.2016 02:46 11,1 C 95 % 1019,6 hPa 0,0 l/m 1,5 km/h (1 Bft) S-SO 162 0 min 0,000 mm 0,0 UV-I 0 W/m 10,3 C 11,1 C 3,2 km/h (1 Bft) 97,87 %
21.06.2016 02:48 11,1 C 95 % 1019,6 hPa 0,0 l/m 1,1 km/h (1 Bft) S-SO 162 0 min 0,000 mm 0,0 UV-I 0 W/m 10,3 C 11,1 C 3,2 km/h (1 Bft) 97,87 %
21.06.2016 02:50 11,0 C 95 % 1019,6 hPa 0,0 l/m 1,9 km/h (1 Bft) S-SO 162 0 min 0,000 mm 0,0 UV-I 0 W/m 10,2 C 11,0 C 3,2 km/h (1 Bft) 100,00 %
21.06.2016 02:52 11,0 C 95 % 1019,6 hPa 0,0 l/m 1,2 km/h (1 Bft) S-SO 162 0 min 0,000 mm 0,0 UV-I 0 W/m 10,2 C 11,0 C 3,2 km/h (1 Bft) 100,00 %
21.06.2016 02:54 10,9 C 95 % 1019,5 hPa 0,0 l/m 0,7 km/h (0 Bft) S-SO 162 0 min 0,000 mm 0,0 UV-I 0 W/m 10,1 C 10,9 C 1,6 km/h (1 Bft) 100,00 %
21.06.2016 02:56 10,9 C 95 % 1019,5 hPa 0,0 l/m 0,2 km/h (0 Bft) S-SO 162 0 min 0,000 mm 0,0 UV-I 0 W/m 10,1 C 10,9 C 1,6 km/h (1 Bft) 97,96 %
21.06.2016 02:58 10,9 C 95 % 1019,5 hPa 0,0 l/m 0,0 km/h (0 Bft) S-SO 162 0 min 0,000 mm 0,0 UV-I 0 W/m 10,1 C 10,9 C 0,0 km/h (0 Bft) 100,00 %
21.06.2016 03:00 10,9 C 95 % 1019,5 hPa 0,0 l/m 1,4 km/h (1 Bft) S-SO 162 0 min 0,000 mm 0,0 UV-I 0 W/m 10,1 C 10,9 C 3,2 km/h (1 Bft) 97,87 %
21.06.2016 03:02 10,9 C 95 % 1019,5 hPa 0,0 l/m 1,7 km/h (1 Bft) S-SO 162 0 min 0,000 mm 0,0 UV-I 0 W/m 10,1 C 10,9 C 3,2 km/h (1 Bft) 100,00 %
21.06.2016 03:04 10,8 C 96 % 1019,5 hPa 0,0 l/m 2,0 km/h (1 Bft) S-SO 162 0 min 0,000 mm 0,0 UV-I 0 W/m 10,2 C 10,8 C 3,2 km/h (1 Bft) 100,00 %
21.06.2016 03:06 10,8 C 96 % 1019,6 hPa 0,0 l/m 2,1 km/h (1 Bft) S-SO 162 0 min 0,000 mm 0,0 UV-I 0 W/m 10,2 C 10,8 C 3,2 km/h (1 Bft) 95,74 %
21.06.2016 03:08 10,8 C 96 % 1019,6 hPa 0,0 l/m 2,3 km/h (1 Bft) S 175 0 min 0,000 mm 0,0 UV-I 0 W/m 10,2 C 10,8 C 3,2 km/h (1 Bft) 100,00 %
21.06.2016 03:10 10,8 C 96 % 1019,7 hPa 0,0 l/m 4,9 km/h (1 Bft) W-SW 253 0 min 0,000 mm 0,0 UV-I 0 W/m 10,2 C 10,8 C 6,4 km/h (2 Bft) 95,83 %
21.06.2016 03:12 10,8 C 96 % 1019,9 hPa 0,0 l/m 6,0 km/h (2 Bft) W-SW 254 0 min 0,000 mm 0,0 UV-I 0 W/m 10,2 C 10,8 C 8,0 km/h (2 Bft) 98,44 %
21.06.2016 03:14 10,8 C 96 % 1019,9 hPa 0,0 l/m 3,2 km/h (1 Bft) W-SW 254 0 min 0,000 mm 0,0 UV-I 0 W/m 10,2 C 10,8 C 4,8 km/h (1 Bft) 95,74 %
21.06.2016 03:16 10,8 C 95 % 1019,7 hPa 0,0 l/m 1,5 km/h (1 Bft) W-SW 244 0 min 0,000 mm 0,0 UV-I 0 W/m 10,0 C 10,8 C 4,8 km/h (1 Bft) 95,74 %
21.06.2016 03:18 10,8 C 96 % 1019,7 hPa 0,0 l/m 0,7 km/h (0 Bft) SW 215 0 min 0,000 mm 0,0 UV-I 0 W/m 10,2 C 10,8 C 1,6 km/h (1 Bft) 96,00 %
21.06.2016 03:20 10,8 C 96 % 1019,7 hPa 0,0 l/m 2,2 km/h (1 Bft) S 184 0 min 0,000 mm 0,0 UV-I 0 W/m 10,2 C 10,8 C 4,8 km/h (1 Bft) 97,87 %
21.06.2016 03:22 10,8 C 96 % 1019,7 hPa 0,0 l/m 2,7 km/h (1 Bft) S 184 0 min 0,000 mm 0,0 UV-I 0 W/m 10,2 C 10,8 C 4,8 km/h (1 Bft) 95,74 %
21.06.2016 03:24 10,8 C 96 % 1019,7 hPa 0,0 l/m 1,9 km/h (1 Bft) S 184 0 min 0,000 mm 0,0 UV-I 0 W/m 10,2 C 10,8 C 3,2 km/h (1 Bft) 89,47 %
21.06.2016 03:26 10,8 C 96 % 1019,7 hPa 0,0 l/m 2,0 km/h (1 Bft) SW 232 0 min 0,000 mm 0,0 UV-I 0 W/m 10,2 C 10,8 C 3,2 km/h (1 Bft) 95,74 %
21.06.2016 03:28 10,8 C 96 % 1019,7 hPa 0,0 l/m 2,8 km/h (1 Bft) W 273 0 min 0,000 mm 0,0 UV-I 0 W/m 10,2 C 10,8 C 4,8 km/h (1 Bft) 95,74 %
21.06.2016 03:30 10,8 C 96 % 1019,7 hPa 0,0 l/m 2,7 km/h (1 Bft) W 275 0 min 0,000 mm 0,0 UV-I 0 W/m 10,2 C 10,8 C 3,2 km/h (1 Bft) 97,87 %
21.06.2016 03:32 10,8 C 96 % 1019,8 hPa 0,0 l/m 1,5 km/h (1 Bft) W 275 0 min 0,000 mm 0,0 UV-I 0 W/m 10,2 C 10,8 C 3,2 km/h (1 Bft) 97,87 %
21.06.2016 03:34 10,8 C 96 % 1019,8 hPa 0,0 l/m 0,0 km/h (0 Bft) W 275 0 min 0,000 mm 0,0 UV-I 0 W/m 10,2 C 10,8 C 0,0 km/h (0 Bft) 93,62 %
21.06.2016 03:36 10,8 C 96 % 1019,7 hPa 0,0 l/m 0,0 km/h (0 Bft) W 275 0 min 0,000 mm 0,0 UV-I 0 W/m 10,2 C 10,8 C 0,0 km/h (0 Bft) 93,62 %
21.06.2016 03:38 10,8 C 96 % 1019,7 hPa 0,0 l/m 0,0 km/h (0 Bft) W 275 0 min 0,000 mm 0,0 UV-I 0 W/m 10,2 C 10,8 C 0,0 km/h (0 Bft) 97,87 %
21.06.2016 03:40 10,8 C 96 % 1019,7 hPa 0,0 l/m 0,0 km/h (0 Bft) W 275 0 min 0,000 mm 0,0 UV-I 0 W/m 10,2 C 10,8 C 0,0 km/h (0 Bft) 95,74 %
21.06.2016 03:42 10,7 C 96 % 1019,6 hPa 0,0 l/m 0,0 km/h (0 Bft) W 275 0 min 0,000 mm 0,0 UV-I 0 W/m 10,1 C 10,7 C 0,0 km/h (0 Bft) 95,74 %
21.06.2016 03:44 10,7 C 96 % 1019,7 hPa 0,0 l/m 0,5 km/h (0 Bft) W 275 0 min 0,000 mm 0,0 UV-I 0 W/m 10,1 C 10,7 C 1,6 km/h (1 Bft) 100,00 %
21.06.2016 03:46 10,7 C 96 % 1019,6 hPa 0,0 l/m 0,9 km/h (0 Bft) W 275 0 min 0,000 mm 0,0 UV-I 0 W/m 10,1 C 10,7 C 1,6 km/h (1 Bft) 100,00 %
21.06.2016 03:48 10,7 C 96 % 1019,6 hPa 0,0 l/m 1,4 km/h (1 Bft) W 275 0 min 0,000 mm 0,0 UV-I 0 W/m 10,1 C 10,7 C 3,2 km/h (1 Bft) 100,00 %
21.06.2016 03:50 10,7 C 96 % 1019,6 hPa 0,0 l/m 1,3 km/h (1 Bft) W 275 0 min 0,000 mm 0,0 UV-I 0 W/m 10,1 C 10,7 C 3,2 km/h (1 Bft) 95,74 %
21.06.2016 03:52 10,7 C 96 % 1019,7 hPa 0,0 l/m 1,2 km/h (1 Bft) W 275 0 min 0,000 mm 0,0 UV-I 0 W/m 10,1 C 10,7 C 3,2 km/h (1 Bft) 97,92 %
21.06.2016 03:54 10,7 C 96 % 1019,7 hPa 0,0 l/m 1,2 km/h (1 Bft) W 275 0 min 0,000 mm 0,0 UV-I 0 W/m 10,1 C 10,7 C 3,2 km/h (1 Bft) 100,00 %
21.06.2016 03:56 10,7 C 96 % 1019,7 hPa 0,0 l/m 0,3 km/h (0 Bft) W 275 0 min 0,000 mm 0,0 UV-I 0 W/m 10,1 C 10,7 C 1,6 km/h (1 Bft) 100,00 %
21.06.2016 03:58 10,7 C 96 % 1019,6 hPa 0,0 l/m 0,9 km/h (0 Bft) W 275 0 min 0,000 mm 0,0 UV-I 0 W/m 10,1 C 10,7 C 1,6 km/h (1 Bft) 100,00 %
21.06.2016 04:00 10,7 C 96 % 1019,6 hPa 0,0 l/m 1,8 km/h (1 Bft) W 275 0 min 0,000 mm 0,0 UV-I 0 W/m 10,1 C 10,7 C 3,2 km/h (1 Bft) 100,00 %
21.06.2016 04:02 10,7 C 96 % 1019,6 hPa 0,0 l/m 1,5 km/h (1 Bft) W 275 0 min 0,000 mm 0,0 UV-I 0 W/m 10,1 C 10,7 C 1,6 km/h (1 Bft) 100,00 %
21.06.2016 04:04 10,7 C 96 % 1019,7 hPa 0,0 l/m 1,8 km/h (1 Bft) W 275 0 min 0,000 mm 0,0 UV-I 0 W/m 10,1 C 10,7 C 3,2 km/h (1 Bft) 100,00 %
21.06.2016 04:06 10,7 C 96 % 1019,7 hPa 0,0 l/m 1,6 km/h (1 Bft) W 275 0 min 0,000 mm 0,0 UV-I 0 W/m 10,1 C 10,7 C 1,6 km/h (1 Bft) 100,00 %
21.06.2016 04:08 10,8 C 96 % 1019,7 hPa 0,0 l/m 0,6 km/h (0 Bft) W 275 0 min 0,000 mm 0,0 UV-I 0 W/m 10,2 C 10,8 C 1,6 km/h (1 Bft) 97,87 %
21.06.2016 04:10 10,8 C 96 % 1019,7 hPa 0,0 l/m 0,8 km/h (0 Bft) W 275 0 min 0,000 mm 0,0 UV-I 0 W/m 10,2 C 10,8 C 1,6 km/h (1 Bft) 100,00 %
21.06.2016 04:12 10,8 C 96 % 1019,7 hPa 0,0 l/m 1,9 km/h (1 Bft) W 275 0 min 0,000 mm 0,0 UV-I 0 W/m 10,2 C 10,8 C 3,2 km/h (1 Bft) 100,00 %
21.06.2016 04:14 10,8 C 96 % 1019,7 hPa 0,0 l/m 1,8 km/h (1 Bft) W 275 0 min 0,000 mm 0,0 UV-I 0 W/m 10,2 C 10,8 C 3,2 km/h (1 Bft) 100,00 %
21.06.2016 04:16 10,7 C 96 % 1019,7 hPa 0,0 l/m 1,1 km/h (1 Bft) W 275 0 min 0,000 mm 0,0 UV-I 0 W/m 10,1 C 10,7 C 1,6 km/h (1 Bft) 97,87 %
21.06.2016 04:18 10,7 C 96 % 1019,7 hPa 0,0 l/m 0,3 km/h (0 Bft) W 275 0 min 0,000 mm 0,0 UV-I 0 W/m 10,1 C 10,7 C 1,6 km/h (1 Bft) 100,00 %
21.06.2016 04:20 10,7 C 96 % 1019,7 hPa 0,0 l/m 0,0 km/h (0 Bft) W 275 0 min 0,000 mm 0,0 UV-I 0 W/m 10,1 C 10,7 C 0,0 km/h (0 Bft) 100,00 %
21.06.2016 04:22 10,7 C 96 % 1019,8 hPa 0,0 l/m 0,0 km/h (0 Bft) W 275 0 min 0,000 mm 0,0 UV-I 0 W/m 10,1 C 10,7 C 0,0 km/h (0 Bft) 100,00 %
21.06.2016 04:24 10,7 C 96 % 1019,8 hPa 0,0 l/m 0,0 km/h (0 Bft) W 275 0 min 0,000 mm 0,0 UV-I 0 W/m 10,1 C 10,7 C 0,0 km/h (0 Bft) 97,87 %
21.06.2016 04:26 10,7 C 96 % 1019,8 hPa 0,0 l/m 0,0 km/h (0 Bft) W 275 0 min 0,000 mm 0,0 UV-I 0 W/m 10,1 C 10,7 C 0,0 km/h (0 Bft) 100,00 %
21.06.2016 04:28 10,7 C 96 % 1019,9 hPa 0,0 l/m 0,0 km/h (0 Bft) W 275 0 min 0,000 mm 0,0 UV-I 0 W/m 10,1 C 10,7 C 0,0 km/h (0 Bft) 100,00 %
21.06.2016 04:30 10,7 C 96 % 1019,9 hPa 0,0 l/m 0,0 km/h (0 Bft) W 275 0 min 0,000 mm 0,0 UV-I 0 W/m 10,1 C 10,7 C 0,0 km/h (0 Bft) 100,00 %
21.06.2016 04:32 10,7 C 96 % 1019,9 hPa 0,0 l/m 0,1 km/h (0 Bft) W 275 0 min 0,000 mm 0,0 UV-I 0 W/m 10,1 C 10,7 C 1,6 km/h (1 Bft) 100,00 %
21.06.2016 04:34 10,7 C 96 % 1019,9 hPa 0,0 l/m 0,0 km/h (0 Bft) W 275 0 min 0,000 mm 0,0 UV-I 0 W/m 10,1 C 10,7 C 0,0 km/h (0 Bft) 100,00 %
21.06.2016 04:36 10,7 C 96 % 1019,9 hPa 0,0 l/m 0,0 km/h (0 Bft) W 275 0 min 0,000 mm 0,0 UV-I 0 W/m 10,1 C 10,7 C 0,0 km/h (0 Bft) 100,00 %
21.06.2016 04:38 10,7 C 96 % 1019,8 hPa 0,0 l/m 0,0 km/h (0 Bft) W 275 0 min 0,000 mm 0,0 UV-I 0 W/m 10,1 C 10,7 C 0,0 km/h (0 Bft) 100,00 %
21.06.2016 04:40 10,7 C 96 % 1019,8 hPa 0,0 l/m 0,0 km/h (0 Bft) W 275 0 min 0,000 mm 0,0 UV-I 0 W/m 10,1 C 10,7 C 0,0 km/h (0 Bft) 98,00 %
21.06.2016 04:42 10,7 C 96 % 1019,8 hPa 0,0 l/m 0,0 km/h (0 Bft) W 275 0 min 0,000 mm 0,0 UV-I 0 W/m 10,1 C 10,7 C 0,0 km/h (0 Bft) 100,00 %
21.06.2016 04:44 10,7 C 96 % 1019,8 hPa 0,0 l/m 0,0 km/h (0 Bft) W 275 0 min 0,000 mm 0,0 UV-I 0 W/m 10,1 C 10,7 C 0,0 km/h (0 Bft) 100,00 %
21.06.2016 04:46 10,7 C 96 % 1019,8 hPa 0,0 l/m 0,0 km/h (0 Bft) W 275 0 min 0,000 mm 0,0 UV-I 0 W/m 10,1 C 10,7 C 0,0 km/h (0 Bft) 100,00 %
21.06.2016 04:48 10,7 C 96 % 1019,8 hPa 0,0 l/m 0,0 km/h (0 Bft) W 275 0 min 0,000 mm 0,0 UV-I 0 W/m 10,1 C 10,7 C 1,6 km/h (1 Bft) 97,87 %
21.06.2016 04:50 10,7 C 96 % 1019,8 hPa 0,0 l/m 0,0 km/h (0 Bft) W 275 0 min 0,000 mm 0,0 UV-I 0 W/m 10,1 C 10,7 C 0,0 km/h (0 Bft) 100,00 %
21.06.2016 04:52 10,6 C 96 % 1019,8 hPa 0,0 l/m 0,0 km/h (0 Bft) W 275 0 min 0,000 mm 0,0 UV-I 0 W/m 10,0 C 10,6 C 0,0 km/h (0 Bft) 100,00 %
21.06.2016 04:54 10,6 C 96 % 1019,8 hPa 0,0 l/m 0,0 km/h (0 Bft) W 275 0 min 0,000 mm 0,0 UV-I 0 W/m 10,0 C 10,6 C 0,0 km/h (0 Bft) 100,00 %
21.06.2016 04:56 10,6 C 96 % 1019,9 hPa 0,0 l/m 0,0 km/h (0 Bft) W 275 0 min 0,000 mm 0,0 UV-I 0 W/m 10,0 C 10,6 C 0,0 km/h (0 Bft) 97,87 %
21.06.2016 04:58 10,6 C 96 % 1019,9 hPa 0,0 l/m 0,0 km/h (0 Bft) W 275 0 min 0,000 mm 0,0 UV-I 5 W/m 10,0 C 10,6 C 0,0 km/h (0 Bft) 100,00 %
21.06.2016 05:00 10,6 C 96 % 1019,9 hPa 0,0 l/m 0,0 km/h (0 Bft) W 275 0 min 0,000 mm 0,0 UV-I 5 W/m 10,0 C 10,6 C 0,0 km/h (0 Bft) 98,00 %
21.06.2016 05:02 10,6 C 96 % 1019,9 hPa 0,0 l/m 1,2 km/h (1 Bft) W 275 0 min 0,000 mm 0,0 UV-I 6 W/m 10,0 C 10,6 C 3,2 km/h (1 Bft) 97,37 %
21.06.2016 05:04 10,6 C 96 % 1019,9 hPa 0,0 l/m 1,8 km/h (1 Bft) W 275 0 min 0,000 mm 0,0 UV-I 8 W/m 10,0 C 10,6 C 3,2 km/h (1 Bft) 100,00 %
21.06.2016 05:06 10,6 C 96 % 1019,9 hPa 0,0 l/m 0,5 km/h (0 Bft) W 275 0 min 0,000 mm 0,0 UV-I 9 W/m 10,0 C 10,6 C 1,6 km/h (1 Bft) 97,87 %
21.06.2016 05:08 10,6 C 96 % 1019,9 hPa 0,0 l/m 0,4 km/h (0 Bft) W 275 0 min 0,000 mm 0,0 UV-I 9 W/m 10,0 C 10,6 C 1,6 km/h (1 Bft) 97,87 %
21.06.2016 05:10 10,6 C 96 % 1019,9 hPa 0,0 l/m 1,1 km/h (1 Bft) W 275 0 min 0,000 mm 0,0 UV-I 9 W/m 10,0 C 10,6 C 3,2 km/h (1 Bft) 97,92 %
21.06.2016 05:12 10,5 C 96 % 1019,8 hPa 0,0 l/m 2,5 km/h (1 Bft) W 275 0 min 0,000 mm 0,0 UV-I 9 W/m 9,9 C 10,5 C 3,2 km/h (1 Bft) 95,83 %
21.06.2016 05:14 10,5 C 96 % 1019,8 hPa 0,0 l/m 3,7 km/h (1 Bft) W 275 0 min 0,000 mm 0,0 UV-I 9 W/m 9,9 C 10,5 C 4,8 km/h (1 Bft) 95,74 %
21.06.2016 05:16 10,5 C 96 % 1019,8 hPa 0,0 l/m 4,4 km/h (1 Bft) W 275 2 min 0,000 mm 0,0 UV-I 9 W/m 9,9 C 10,5 C 4,8 km/h (1 Bft) 96,00 %
21.06.2016 05:18 10,5 C 96 % 1019,8 hPa 0,0 l/m 2,5 km/h (1 Bft) W 275 0 min 0,000 mm 0,0 UV-I 9 W/m 9,9 C 10,5 C 4,8 km/h (1 Bft) 96,00 %
21.06.2016 05:20 10,5 C 96 % 1019,8 hPa 0,0 l/m 1,2 km/h (1 Bft) W 275 0 min 0,000 mm 0,0 UV-I 9 W/m 9,9 C 10,5 C 1,6 km/h (1 Bft) 95,74 %
21.06.2016 05:22 10,6 C 96 % 1019,9 hPa 0,0 l/m 0,8 km/h (0 Bft) W 275 0 min 0,000 mm 0,0 UV-I 9 W/m 10,0 C 10,6 C 1,6 km/h (1 Bft) 97,87 %
21.06.2016 05:24 10,6 C 96 % 1019,9 hPa 0,0 l/m 0,3 km/h (0 Bft) W 275 0 min 0,000 mm 0,0 UV-I 9 W/m 10,0 C 10,6 C 1,6 km/h (1 Bft) 97,87 %
21.06.2016 05:26 10,6 C 96 % 1019,9 hPa 0,0 l/m 0,0 km/h (0 Bft) W 275 0 min 0,000 mm 0,0 UV-I 9 W/m 10,0 C 10,6 C 0,0 km/h (0 Bft) 97,87 %
21.06.2016 05:28 10,6 C 96 % 1020,0 hPa 0,0 l/m 0,2 km/h (0 Bft) W 275 0 min 0,000 mm 0,0 UV-I 9 W/m 10,0 C 10,6 C 1,6 km/h (1 Bft) 97,87 %
21.06.2016 05:30 10,6 C 96 % 1019,9 hPa 0,0 l/m 2,3 km/h (1 Bft) W 275 0 min 0,000 mm 0,0 UV-I 11 W/m 10,0 C 10,6 C 3,2 km/h (1 Bft) 97,87 %
21.06.2016 05:32 10,6 C 96 % 1020,0 hPa 0,0 l/m 1,8 km/h (1 Bft) W 275 0 min 0,000 mm 0,0 UV-I 11 W/m 10,0 C 10,6 C 3,2 km/h (1 Bft) 95,74 %
21.06.2016 05:34 10,6 C 96 % 1020,0 hPa 0,0 l/m 0,6 km/h (0 Bft) W 275 0 min 0,000 mm 0,0 UV-I 12 W/m 10,0 C 10,6 C 1,6 km/h (1 Bft) 97,87 %
21.06.2016 05:36 10,6 C 96 % 1020,0 hPa 0,0 l/m 1,4 km/h (1 Bft) W 275 0 min 0,000 mm 0,0 UV-I 14 W/m 10,0 C 10,6 C 3,2 km/h (1 Bft) 97,37 %
21.06.2016 05:38 10,6 C 96 % 1020,0 hPa 0,0 l/m 0,1 km/h (0 Bft) W 275 0 min 0,000 mm 0,0 UV-I 17 W/m 10,0 C 10,6 C 1,6 km/h (1 Bft) 98,00 %
21.06.2016 05:40 10,6 C 96 % 1020,0 hPa 0,0 l/m 0,0 km/h (0 Bft) W 275 0 min 0,000 mm 0,0 UV-I 19 W/m 10,0 C 10,6 C 0,0 km/h (0 Bft) 97,87 %
21.06.2016 05:42 10,6 C 96 % 1020,0 hPa 0,0 l/m 0,5 km/h (0 Bft) W 275 0 min 0,000 mm 0,0 UV-I 22 W/m 10,0 C 10,6 C 3,2 km/h (1 Bft) 95,74 %
21.06.2016 05:44 10,6 C 96 % 1020,1 hPa 0,0 l/m 0,4 km/h (0 Bft) W 275 0 min 0,000 mm 0,0 UV-I 23 W/m 10,0 C 10,6 C 3,2 km/h (1 Bft) 97,87 %
21.06.2016 05:46 10,6 C 96 % 1020,1 hPa 0,0 l/m 1,5 km/h (1 Bft) W 275 0 min 0,000 mm 0,0 UV-I 25 W/m 10,0 C 10,6 C 3,2 km/h (1 Bft) 95,74 %
21.06.2016 05:48 10,6 C 96 % 1020,1 hPa 0,0 l/m 1,7 km/h (1 Bft) W 275 0 min 0,000 mm 0,0 UV-I 25 W/m 10,0 C 10,6 C 3,2 km/h (1 Bft) 100,00 %
21.06.2016 05:50 10,6 C 96 % 1020,1 hPa 0,0 l/m 2,3 km/h (1 Bft) W 275 0 min 0,000 mm 0,0 UV-I 26 W/m 10,0 C 10,6 C 3,2 km/h (1 Bft) 100,00 %
21.06.2016 05:52 10,6 C 96 % 1020,1 hPa 0,0 l/m 0,9 km/h (0 Bft) W 275 0 min 0,000 mm 0,0 UV-I 27 W/m 10,0 C 10,6 C 3,2 km/h (1 Bft) 100,00 %
21.06.2016 05:54 10,6 C 96 % 1020,1 hPa 0,0 l/m 0,0 km/h (0 Bft) W 275 0 min 0,000 mm 0,0 UV-I 28 W/m 10,0 C 10,6 C 1,6 km/h (1 Bft) 97,87 %
21.06.2016 05:56 10,6 C 96 % 1020,1 hPa 0,0 l/m 0,6 km/h (0 Bft) W 275 0 min 0,000 mm 0,0 UV-I 30 W/m 10,0 C 10,6 C 1,6 km/h (1 Bft) 97,87 %
21.06.2016 05:58 10,7 C 97 % 1020,3 hPa 0,0 l/m 0,7 km/h (0 Bft) W 275 0 min 0,000 mm 0,0 UV-I 30 W/m 10,2 C 10,7 C 1,6 km/h (1 Bft) 95,74 %
21.06.2016 06:00 10,7 C 97 % 1020,3 hPa 0,0 l/m 1,2 km/h (1 Bft) W 275 0 min 0,000 mm 0,0 UV-I 32 W/m 10,2 C 10,7 C 1,6 km/h (1 Bft) 97,87 %
21.06.2016 06:02 10,7 C 97 % 1020,4 hPa 0,0 l/m 1,8 km/h (1 Bft) W 275 0 min 0,000 mm 0,0 UV-I 33 W/m 10,2 C 10,7 C 3,2 km/h (1 Bft) 100,00 %
21.06.2016 06:04 10,7 C 97 % 1020,4 hPa 0,0 l/m 2,5 km/h (1 Bft) S-SW 203 0 min 0,000 mm 0,0 UV-I 34 W/m 10,2 C 10,7 C 3,2 km/h (1 Bft) 97,87 %
21.06.2016 06:06 10,8 C 97 % 1020,5 hPa 0,0 l/m 0,8 km/h (0 Bft) S-SW 203 0 min 0,000 mm 0,0 UV-I 35 W/m 10,3 C 10,8 C 3,2 km/h (1 Bft) 100,00 %
21.06.2016 06:08 10,8 C 97 % 1020,5 hPa 0,0 l/m 1,0 km/h (0 Bft) S-SW 203 0 min 0,000 mm 0,0 UV-I 37 W/m 10,3 C 10,8 C 1,6 km/h (1 Bft) 98,00 %
21.06.2016 06:10 10,8 C 97 % 1020,5 hPa 0,0 l/m 0,2 km/h (0 Bft) S-SW 203 0 min 0,000 mm 0,0 UV-I 39 W/m 10,3 C 10,8 C 1,6 km/h (1 Bft) 100,00 %
21.06.2016 06:12 10,8 C 97 % 1020,4 hPa 0,0 l/m 0,7 km/h (0 Bft) S-SW 202 0 min 0,000 mm 0,0 UV-I 42 W/m 10,3 C 10,8 C 1,6 km/h (1 Bft) 97,96 %
21.06.2016 06:14 10,9 C 97 % 1020,4 hPa 0,0 l/m 1,3 km/h (1 Bft) S-SW 202 0 min 0,000 mm 0,0 UV-I 44 W/m 10,4 C 10,9 C 3,2 km/h (1 Bft) 95,74 %
21.06.2016 06:16 11,2 C 97 % 1020,5 hPa 0,0 l/m 1,7 km/h (1 Bft) S-SW 202 0 min 0,000 mm 0,0 UV-I 48 W/m 10,7 C 11,2 C 3,2 km/h (1 Bft) 95,74 %
21.06.2016 06:18 11,3 C 97 % 1020,5 hPa 0,0 l/m 2,1 km/h (1 Bft) S-SW 202 0 min 0,000 mm 0,0 UV-I 50 W/m 10,8 C 11,3 C 3,2 km/h (1 Bft) 100,00 %
21.06.2016 06:20 11,3 C 97 % 1020,5 hPa 0,0 l/m 1,9 km/h (1 Bft) S 180 0 min 0,000 mm 0,0 UV-I 51 W/m 10,8 C 11,3 C 4,8 km/h (1 Bft) 100,00 %
21.06.2016 06:22 11,4 C 97 % 1020,5 hPa 0,0 l/m 0,3 km/h (0 Bft) S 180 0 min 0,000 mm 0,0 UV-I 53 W/m 10,9 C 11,4 C 1,6 km/h (1 Bft) 100,00 %
21.06.2016 06:24 11,6 C 97 % 1020,6 hPa 0,0 l/m 0,0 km/h (0 Bft) S 180 0 min 0,000 mm 0,0 UV-I 53 W/m 11,1 C 11,6 C 1,6 km/h (1 Bft) 100,00 %
21.06.2016 06:26 11,6 C 97 % 1020,5 hPa 0,0 l/m 1,4 km/h (1 Bft) S 180 0 min 0,000 mm 0,0 UV-I 53 W/m 11,1 C 11,6 C 3,2 km/h (1 Bft) 100,00 %
21.06.2016 06:28 11,7 C 97 % 1020,6 hPa 0,0 l/m 1,7 km/h (1 Bft) S 180 0 min 0,000 mm 0,0 UV-I 53 W/m 11,2 C 11,7 C 4,8 km/h (1 Bft) 100,00 %
21.06.2016 06:30 11,7 C 97 % 1020,6 hPa 0,0 l/m 1,0 km/h (0 Bft) S 180 0 min 0,000 mm 0,0 UV-I 53 W/m 11,2 C 11,7 C 3,2 km/h (1 Bft) 97,87 %
21.06.2016 06:32 11,7 C 97 % 1020,6 hPa 0,0 l/m 0,0 km/h (0 Bft) S 180 0 min 0,000 mm 0,0 UV-I 54 W/m 11,2 C 11,7 C 0,0 km/h (0 Bft) 97,87 %
21.06.2016 06:34 11,7 C 97 % 1020,6 hPa 0,0 l/m 0,0 km/h (0 Bft) S 180 0 min 0,000 mm 0,0 UV-I 55 W/m 11,2 C 11,7 C 0,0 km/h (0 Bft) 97,87 %
21.06.2016 06:36 11,7 C 97 % 1020,6 hPa 0,0 l/m 0,1 km/h (0 Bft) S 180 0 min 0,000 mm 0,0 UV-I 57 W/m 11,2 C 11,7 C 1,6 km/h (1 Bft) 100,00 %
21.06.2016 06:38 11,7 C 97 % 1020,6 hPa 0,0 l/m 0,8 km/h (0 Bft) S 180 0 min 0,000 mm 0,0 UV-I 62 W/m 11,2 C 11,7 C 1,6 km/h (1 Bft) 100,00 %
21.06.2016 06:40 11,7 C 96 % 1020,6 hPa 0,0 l/m 0,1 km/h (0 Bft) S 180 0 min 0,000 mm 0,0 UV-I 67 W/m 11,1 C 11,7 C 1,6 km/h (1 Bft) 100,00 %
21.06.2016 06:42 11,7 C 96 % 1020,6 hPa 0,0 l/m 0,0 km/h (0 Bft) S 180 0 min 0,000 mm 0,0 UV-I 70 W/m 11,1 C 11,7 C 0,0 km/h (0 Bft) 97,87 %
21.06.2016 06:44 11,7 C 96 % 1020,6 hPa 0,0 l/m 0,0 km/h (0 Bft) S 180 0 min 0,000 mm 0,0 UV-I 72 W/m 11,1 C 11,7 C 0,0 km/h (0 Bft) 97,87 %
21.06.2016 06:46 11,8 C 97 % 1020,7 hPa 0,0 l/m 0,1 km/h (0 Bft) S 180 0 min 0,000 mm 0,0 UV-I 70 W/m 11,3 C 11,8 C 1,6 km/h (1 Bft) 100,00 %
21.06.2016 06:48 11,8 C 97 % 1020,7 hPa 0,0 l/m 0,3 km/h (0 Bft) S 180 0 min 0,000 mm 0,0 UV-I 70 W/m 11,3 C 11,8 C 1,6 km/h (1 Bft) 94,74 %
21.06.2016 06:50 11,8 C 97 % 1020,7 hPa 0,0 l/m 0,3 km/h (0 Bft) S 180 0 min 0,000 mm 0,0 UV-I 70 W/m 11,3 C 11,8 C 1,6 km/h (1 Bft) 100,00 %
21.06.2016 06:52 11,8 C 96 % 1020,7 hPa 0,0 l/m 0,0 km/h (0 Bft) S 180 0 min 0,000 mm 0,0 UV-I 70 W/m 11,2 C 11,8 C 1,6 km/h (1 Bft) 97,87 %
21.06.2016 06:54 11,8 C 97 % 1020,7 hPa 0,0 l/m 2,6 km/h (1 Bft) S 180 0 min 0,000 mm 0,0 UV-I 69 W/m 11,3 C 11,8 C 4,8 km/h (1 Bft) 97,87 %
21.06.2016 06:56 11,9 C 97 % 1020,8 hPa 0,0 l/m 0,7 km/h (0 Bft) S 180 0 min 0,000 mm 0,0 UV-I 67 W/m 11,4 C 11,9 C 3,2 km/h (1 Bft) 98,00 %
21.06.2016 06:58 11,9 C 97 % 1020,8 hPa 0,0 l/m 0,1 km/h (0 Bft) S 180 0 min 0,000 mm 0,0 UV-I 66 W/m 11,4 C 11,9 C 1,6 km/h (1 Bft) 97,87 %
21.06.2016 07:00 12,1 C 97 % 1020,7 hPa 0,0 l/m 0,8 km/h (0 Bft) S 180 0 min 0,025 mm 0,0 UV-I 65 W/m 11,6 C 12,1 C 3,2 km/h (1 Bft) 100,00 %
21.06.2016 07:02 12,1 C 97 % 1020,7 hPa 0,0 l/m 2,0 km/h (1 Bft) S 180 0 min 0,000 mm 0,0 UV-I 65 W/m 11,6 C 12,1 C 3,2 km/h (1 Bft) 100,00 %
21.06.2016 07:04 12,2 C 97 % 1020,8 hPa 0,0 l/m 1,5 km/h (1 Bft) S 180 0 min 0,000 mm 0,0 UV-I 67 W/m 11,7 C 12,2 C 3,2 km/h (1 Bft) 97,37 %
21.06.2016 07:06 12,3 C 96 % 1020,9 hPa 0,0 l/m 0,5 km/h (0 Bft) S 180 0 min 0,000 mm 0,0 UV-I 68 W/m 11,7 C 12,3 C 1,6 km/h (1 Bft) 100,00 %
21.06.2016 07:08 12,4 C 97 % 1020,9 hPa 0,0 l/m 0,5 km/h (0 Bft) S 180 0 min 0,000 mm 0,0 UV-I 69 W/m 11,9 C 12,4 C 1,6 km/h (1 Bft) 97,92 %
21.06.2016 07:10 12,4 C 96 % 1020,9 hPa 0,0 l/m 0,9 km/h (0 Bft) S 180 0 min 0,000 mm 0,0 UV-I 69 W/m 11,8 C 12,4 C 1,6 km/h (1 Bft) 97,87 %
21.06.2016 07:12 12,5 C 96 % 1020,9 hPa 0,0 l/m 1,4 km/h (1 Bft) S 180 0 min 0,000 mm 0,0 UV-I 69 W/m 11,9 C 12,5 C 3,2 km/h (1 Bft) 93,62 %
21.06.2016 07:14 12,5 C 95 % 1020,9 hPa 0,0 l/m 0,9 km/h (0 Bft) S 180 0 min 0,000 mm 0,0 UV-I 69 W/m 11,7 C 12,5 C 1,6 km/h (1 Bft) 95,74 %
21.06.2016 07:16 12,6 C 95 % 1021,0 hPa 0,0 l/m 0,5 km/h (0 Bft) S 180 0 min 0,000 mm 0,0 UV-I 69 W/m 11,8 C 12,6 C 1,6 km/h (1 Bft) 97,87 %
21.06.2016 07:18 12,6 C 95 % 1021,0 hPa 0,0 l/m 0,0 km/h (0 Bft) S 180 0 min 0,000 mm 0,0 UV-I 68 W/m 11,8 C 12,6 C 0,0 km/h (0 Bft) 93,62 %
21.06.2016 07:20 12,6 C 95 % 1021,1 hPa 0,0 l/m 0,0 km/h (0 Bft) S 180 0 min 0,000 mm 0,0 UV-I 69 W/m 11,8 C 12,6 C 1,6 km/h (1 Bft) 93,62 %
21.06.2016 07:22 12,7 C 95 % 1021,1 hPa 0,0 l/m 0,0 km/h (0 Bft) S 180 0 min 0,000 mm 0,0 UV-I 69 W/m 11,9 C 12,7 C 0,0 km/h (0 Bft) 97,87 %
21.06.2016 07:24 12,8 C 95 % 1021,1 hPa 0,0 l/m 0,0 km/h (0 Bft) S 180 0 min 0,000 mm 0,0 UV-I 70 W/m 12,0 C 12,8 C 0,0 km/h (0 Bft) 95,74 %
21.06.2016 07:26 12,8 C 94 % 1021,1 hPa 0,0 l/m 0,0 km/h (0 Bft) S 180 0 min 0,000 mm 0,0 UV-I 72 W/m 11,9 C 12,8 C 0,0 km/h (0 Bft) 97,87 %
21.06.2016 07:28 12,8 C 94 % 1021,1 hPa 0,0 l/m 0,7 km/h (0 Bft) S 180 0 min 0,000 mm 0,0 UV-I 74 W/m 11,9 C 12,8 C 3,2 km/h (1 Bft) 95,74 %
21.06.2016 07:30 12,9 C 94 % 1021,1 hPa 0,0 l/m 1,1 km/h (1 Bft) S 180 0 min 0,000 mm 0,0 UV-I 76 W/m 12,0 C 12,9 C 3,2 km/h (1 Bft) 93,62 %
21.06.2016 07:32 12,9 C 95 % 1021,2 hPa 0,0 l/m 2,5 km/h (1 Bft) S 180 0 min 0,000 mm 0,0 UV-I 78 W/m 12,1 C 12,9 C 3,2 km/h (1 Bft) 95,74 %
21.06.2016 07:34 13,0 C 95 % 1021,2 hPa 0,0 l/m 1,7 km/h (1 Bft) S 180 0 min 0,000 mm 0,0 UV-I 82 W/m 12,2 C 13,0 C 3,2 km/h (1 Bft) 97,87 %
21.06.2016 07:36 13,0 C 95 % 1021,2 hPa 0,0 l/m 0,9 km/h (0 Bft) S 180 0 min 0,000 mm 0,0 UV-I 87 W/m 12,2 C 13,0 C 3,2 km/h (1 Bft) 93,62 %
21.06.2016 07:38 13,0 C 95 % 1021,2 hPa 0,0 l/m 0,4 km/h (0 Bft) S 180 0 min 0,000 mm 0,0 UV-I 91 W/m 12,2 C 13,0 C 1,6 km/h (1 Bft) 95,74 %
21.06.2016 07:40 13,0 C 95 % 1021,3 hPa 0,0 l/m 1,0 km/h (0 Bft) S 180 0 min 0,000 mm 0,0 UV-I 97 W/m 12,2 C 13,0 C 1,6 km/h (1 Bft) 93,62 %
21.06.2016 07:42 13,0 C 94 % 1021,3 hPa 0,0 l/m 0,7 km/h (0 Bft) S 180 0 min 0,000 mm 0,0 UV-I 103 W/m 12,1 C 13,0 C 1,6 km/h (1 Bft) 95,74 %
21.06.2016 07:44 13,0 C 95 % 1021,2 hPa 0,0 l/m 2,1 km/h (1 Bft) S 180 0 min 0,000 mm 0,0 UV-I 106 W/m 12,2 C 13,0 C 3,2 km/h (1 Bft) 100,00 %
21.06.2016 07:46 13,1 C 95 % 1021,4 hPa 0,0 l/m 1,0 km/h (0 Bft) S 180 0 min 0,000 mm 0,0 UV-I 109 W/m 12,3 C 13,1 C 3,2 km/h (1 Bft) 100,00 %
21.06.2016 07:48 13,1 C 95 % 1021,3 hPa 0,0 l/m 0,2 km/h (0 Bft) S 180 0 min 0,000 mm 0,0 UV-I 109 W/m 12,3 C 13,1 C 1,6 km/h (1 Bft) 97,87 %
21.06.2016 07:50 13,2 C 95 % 1021,3 hPa 0,0 l/m 0,1 km/h (0 Bft) S 180 0 min 0,000 mm 0,0 UV-I 110 W/m 12,4 C 13,2 C 1,6 km/h (1 Bft) 97,87 %
21.06.2016 07:52 13,2 C 94 % 1021,3 hPa 0,0 l/m 0,4 km/h (0 Bft) S 180 0 min 0,000 mm 0,0 UV-I 113 W/m 12,3 C 13,2 C 3,2 km/h (1 Bft) 97,87 %
21.06.2016 07:54 13,2 C 94 % 1021,3 hPa 0,0 l/m 1,8 km/h (1 Bft) S 180 0 min 0,000 mm 0,1 UV-I 118 W/m 12,3 C 13,2 C 3,2 km/h (1 Bft) 97,92 %
21.06.2016 07:56 13,3 C 93 % 1021,3 hPa 0,0 l/m 1,3 km/h (1 Bft) S 180 0 min 0,000 mm 0,5 UV-I 121 W/m 12,2 C 13,3 C 4,8 km/h (1 Bft) 100,00 %
21.06.2016 07:58 13,4 C 94 % 1021,3 hPa 0,0 l/m 1,2 km/h (1 Bft) S 180 0 min 0,000 mm 0,5 UV-I 124 W/m 12,5 C 13,4 C 3,2 km/h (1 Bft) 100,00 %
21.06.2016 08:00 13,4 C 94 % 1021,3 hPa 0,0 l/m 1,9 km/h (1 Bft) S 180 0 min 0,051 mm 0,5 UV-I 128 W/m 12,5 C 13,4 C 3,2 km/h (1 Bft) 100,00 %
21.06.2016 08:02 13,6 C 94 % 1021,3 hPa 0,0 l/m 2,0 km/h (1 Bft) S 180 0 min 0,000 mm 0,5 UV-I 132 W/m 12,7 C 13,6 C 6,4 km/h (2 Bft) 100,00 %
21.06.2016 08:04 13,7 C 94 % 1021,2 hPa 0,0 l/m 3,6 km/h (1 Bft) S 190 0 min 0,000 mm 0,6 UV-I 134 W/m 12,8 C 13,7 C 4,8 km/h (1 Bft) 97,87 %
21.06.2016 08:06 13,7 C 93 % 1021,2 hPa 0,0 l/m 3,9 km/h (1 Bft) S 190 0 min 0,000 mm 0,6 UV-I 137 W/m 12,6 C 13,7 C 6,4 km/h (2 Bft) 100,00 %
21.06.2016 08:08 13,7 C 93 % 1021,2 hPa 0,0 l/m 3,1 km/h (1 Bft) S 171 0 min 0,000 mm 0,6 UV-I 141 W/m 12,6 C 13,7 C 6,4 km/h (2 Bft) 100,00 %
21.06.2016 08:10 13,7 C 93 % 1021,2 hPa 0,0 l/m 4,1 km/h (1 Bft) S-SO 164 0 min 0,000 mm 0,6 UV-I 145 W/m 12,6 C 13,7 C 6,4 km/h (2 Bft) 100,00 %
21.06.2016 08:12 13,7 C 92 % 1021,2 hPa 0,0 l/m 3,0 km/h (1 Bft) S 174 0 min 0,000 mm 0,7 UV-I 144 W/m 12,4 C 13,7 C 6,4 km/h (2 Bft) 100,00 %
21.06.2016 08:14 13,8 C 93 % 1021,2 hPa 0,0 l/m 2,3 km/h (1 Bft) S 173 0 min 0,000 mm 0,7 UV-I 143 W/m 12,7 C 13,8 C 4,8 km/h (1 Bft) 100,00 %
21.06.2016 08:16 13,8 C 93 % 1021,3 hPa 0,0 l/m 2,6 km/h (1 Bft) S 172 0 min 0,000 mm 0,7 UV-I 146 W/m 12,7 C 13,8 C 4,8 km/h (1 Bft) 100,00 %
21.06.2016 08:18 13,9 C 93 % 1021,3 hPa 0,0 l/m 2,3 km/h (1 Bft) SO 146 0 min 0,000 mm 0,7 UV-I 148 W/m 12,8 C 13,9 C 6,4 km/h (2 Bft) 100,00 %
21.06.2016 08:20 13,9 C 92 % 1021,2 hPa 0,0 l/m 2,7 km/h (1 Bft) S-SO 162 0 min 0,000 mm 0,8 UV-I 144 W/m 12,6 C 13,9 C 6,4 km/h (2 Bft) 100,00 %
21.06.2016 08:22 14,0 C 91 % 1021,2 hPa 0,0 l/m 2,4 km/h (1 Bft) S-SO 148 0 min 0,000 mm 0,8 UV-I 144 W/m 12,6 C 14,0 C 4,8 km/h (1 Bft) 100,00 %
21.06.2016 08:24 14,1 C 92 % 1021,2 hPa 0,0 l/m 2,2 km/h (1 Bft) SO 137 0 min 0,000 mm 0,8 UV-I 144 W/m 12,8 C 14,1 C 6,4 km/h (2 Bft) 97,87 %
21.06.2016 08:26 14,1 C 92 % 1021,2 hPa 0,0 l/m 3,0 km/h (1 Bft) S-SO 166 0 min 0,000 mm 0,9 UV-I 139 W/m 12,8 C 14,1 C 8,0 km/h (2 Bft) 97,92 %
21.06.2016 08:28 14,2 C 92 % 1021,2 hPa 0,0 l/m 2,5 km/h (1 Bft) S-SO 159 0 min 0,000 mm 0,9 UV-I 133 W/m 12,9 C 14,2 C 6,4 km/h (2 Bft) 100,00 %
21.06.2016 08:30 14,2 C 92 % 1021,2 hPa 0,0 l/m 1,2 km/h (1 Bft) S-SO 160 0 min 0,000 mm 0,9 UV-I 132 W/m 12,9 C 14,2 C 3,2 km/h (1 Bft) 100,00 %
21.06.2016 08:32 14,3 C 92 % 1021,2 hPa 0,0 l/m 2,9 km/h (1 Bft) S 172 0 min 0,000 mm 1,0 UV-I 133 W/m 13,0 C 14,3 C 6,4 km/h (2 Bft) 97,87 %
21.06.2016 08:34 14,3 C 92 % 1021,2 hPa 0,0 l/m 2,9 km/h (1 Bft) S-SO 159 0 min 0,000 mm 1,0 UV-I 136 W/m 13,0 C 14,3 C 6,4 km/h (2 Bft) 97,87 %
21.06.2016 08:36 14,3 C 92 % 1021,2 hPa 0,0 l/m 3,9 km/h (1 Bft) S-SO 155 0 min 0,000 mm 1,1 UV-I 148 W/m 13,0 C 14,3 C 9,7 km/h (2 Bft) 100,00 %
21.06.2016 08:38 14,3 C 92 % 1021,2 hPa 0,0 l/m 3,7 km/h (1 Bft) S-SO 158 0 min 0,000 mm 1,3 UV-I 204 W/m 13,0 C 14,3 C 6,4 km/h (2 Bft) 97,87 %
21.06.2016 08:40 14,5 C 93 % 1021,1 hPa 0,0 l/m 4,0 km/h (1 Bft) S-SO 161 0 min 0,000 mm 1,6 UV-I 237 W/m 13,4 C 14,5 C 8,0 km/h (2 Bft) 100,00 %
21.06.2016 08:42 14,8 C 93 % 1021,1 hPa 0,0 l/m 2,0 km/h (1 Bft) S-SO 160 2 min 0,000 mm 1,7 UV-I 430 W/m 13,7 C 14,8 C 4,8 km/h (1 Bft) 100,00 %
21.06.2016 08:44 15,1 C 92 % 1021,1 hPa 0,0 l/m 3,8 km/h (1 Bft) SO 132 2 min 0,000 mm 1,8 UV-I 497 W/m 13,8 C 15,1 C 6,4 km/h (2 Bft) 98,00 %
21.06.2016 08:46 15,3 C 92 % 1021,1 hPa 0,0 l/m 5,8 km/h (2 Bft) O-SO 123 2 min 0,000 mm 1,9 UV-I 535 W/m 14,0 C 15,3 C 9,7 km/h (2 Bft) 100,00 %
21.06.2016 08:48 15,5 C 91 % 1021,1 hPa 0,0 l/m 4,7 km/h (1 Bft) SO 133 2 min 0,000 mm 2,0 UV-I 541 W/m 14,0 C 15,5 C 8,0 km/h (2 Bft) 100,00 %
21.06.2016 08:50 15,8 C 90 % 1021,1 hPa 0,0 l/m 3,6 km/h (1 Bft) S-SO 161 2 min 0,000 mm 2,0 UV-I 551 W/m 14,2 C 15,8 C 11,3 km/h (2 Bft) 94,74 %
21.06.2016 08:52 15,8 C 89 % 1021,1 hPa 0,0 l/m 4,0 km/h (1 Bft) SO 132 2 min 0,000 mm 2,0 UV-I 529 W/m 14,0 C 15,8 C 8,0 km/h (2 Bft) 100,00 %
21.06.2016 08:54 16,0 C 88 % 1021,1 hPa 0,0 l/m 4,9 km/h (1 Bft) S-SO 156 2 min 0,000 mm 1,9 UV-I 374 W/m 14,0 C 16,0 C 8,0 km/h (2 Bft) 97,87 %
21.06.2016 08:56 16,2 C 88 % 1021,2 hPa 0,0 l/m 2,0 km/h (1 Bft) SO 134 2 min 0,000 mm 2,1 UV-I 480 W/m 14,2 C 16,2 C 4,8 km/h (1 Bft) 97,87 %
21.06.2016 08:58 16,3 C 87 % 1021,1 hPa 0,0 l/m 1,1 km/h (1 Bft) S 183 2 min 0,000 mm 2,1 UV-I 550 W/m 14,1 C 16,3 C 3,2 km/h (1 Bft) 97,87 %
21.06.2016 09:00 16,3 C 87 % 1021,1 hPa 0,0 l/m 0,8 km/h (0 Bft) S 188 2 min 0,153 mm 2,5 UV-I 588 W/m 14,1 C 16,3 C 3,2 km/h (1 Bft) 97,87 %
21.06.2016 09:02 16,6 C 87 % 1021,1 hPa 0,0 l/m 2,3 km/h (1 Bft) S-SW 200 2 min 0,000 mm 2,5 UV-I 578 W/m 14,4 C 16,6 C 4,8 km/h (1 Bft) 97,92 %
21.06.2016 09:04 16,7 C 85 % 1021,1 hPa 0,0 l/m 1,4 km/h (1 Bft) S-SW 201 2 min 0,000 mm 2,2 UV-I 501 W/m 14,2 C 16,7 C 4,8 km/h (1 Bft) 100,00 %
21.06.2016 09:06 16,7 C 84 % 1021,1 hPa 0,0 l/m 4,5 km/h (1 Bft) S-SW 211 0 min 0,000 mm 2,1 UV-I 296 W/m 14,0 C 16,7 C 8,0 km/h (2 Bft) 95,74 %
21.06.2016 09:08 16,6 C 83 % 1021,2 hPa 0,0 l/m 3,5 km/h (1 Bft) S 173 2 min 0,000 mm 2,2 UV-I 363 W/m 13,7 C 16,6 C 6,4 km/h (2 Bft) 95,74 %
21.06.2016 09:10 16,6 C 85 % 1021,2 hPa 0,0 l/m 1,6 km/h (1 Bft) S 174 2 min 0,000 mm 2,5 UV-I 437 W/m 14,1 C 16,6 C 4,8 km/h (1 Bft) 97,92 %
21.06.2016 09:12 16,7 C 84 % 1021,2 hPa 0,0 l/m 2,4 km/h (1 Bft) SW 221 2 min 0,000 mm 2,3 UV-I 354 W/m 14,0 C 16,7 C 4,8 km/h (1 Bft) 97,56 %
21.06.2016 09:14 16,7 C 84 % 1021,2 hPa 0,0 l/m 5,4 km/h (1 Bft) SW 225 0 min 0,000 mm 2,1 UV-I 299 W/m 14,0 C 16,7 C 9,7 km/h (2 Bft) 98,00 %
21.06.2016 09:16 16,7 C 82 % 1021,2 hPa 0,0 l/m 4,8 km/h (1 Bft) SW 225 0 min 0,000 mm 2,2 UV-I 282 W/m 13,6 C 16,7 C 8,0 km/h (2 Bft) 97,87 %
21.06.2016 09:18 16,7 C 84 % 1021,3 hPa 0,0 l/m 2,7 km/h (1 Bft) S-SW 211 0 min 0,000 mm 2,2 UV-I 295 W/m 14,0 C 16,7 C 4,8 km/h (1 Bft) 97,87 %
21.06.2016 09:20 16,8 C 84 % 1021,3 hPa 0,0 l/m 5,0 km/h (1 Bft) W-SW 241 0 min 0,000 mm 2,3 UV-I 323 W/m 14,1 C 16,8 C 8,0 km/h (2 Bft) 93,62 %
21.06.2016 09:22 16,9 C 82 % 1021,3 hPa 0,0 l/m 3,9 km/h (1 Bft) S 188 2 min 0,000 mm 2,5 UV-I 380 W/m 13,8 C 16,9 C 8,0 km/h (2 Bft) 96,00 %
21.06.2016 09:24 16,9 C 82 % 1021,2 hPa 0,0 l/m 4,0 km/h (1 Bft) S 180 2 min 0,000 mm 2,8 UV-I 408 W/m 13,8 C 16,9 C 6,4 km/h (2 Bft) 97,87 %
21.06.2016 09:26 17,1 C 81 % 1021,3 hPa 0,0 l/m 2,5 km/h (1 Bft) S-SW 213 2 min 0,000 mm 2,9 UV-I 414 W/m 13,8 C 17,1 C 4,8 km/h (1 Bft) 97,87 %
21.06.2016 09:28 17,3 C 82 % 1021,2 hPa 0,0 l/m 5,3 km/h (1 Bft) S-SO 165 2 min 0,000 mm 3,0 UV-I 452 W/m 14,2 C 17,3 C 9,7 km/h (2 Bft) 98,00 %
21.06.2016 09:30 17,4 C 83 % 1021,2 hPa 0,0 l/m 3,8 km/h (1 Bft) W-NW 296 2 min 0,000 mm 3,1 UV-I 505 W/m 14,5 C 17,4 C 8,0 km/h (2 Bft) 97,14 %
21.06.2016 09:32 17,7 C 80 % 1021,2 hPa 0,0 l/m 3,3 km/h (1 Bft) NW 313 2 min 0,000 mm 3,2 UV-I 513 W/m 14,2 C 17,7 C 9,7 km/h (2 Bft) 98,00 %
21.06.2016 09:34 17,8 C 80 % 1021,3 hPa 0,0 l/m 7,2 km/h (2 Bft) W-NW 294 2 min 0,000 mm 3,2 UV-I 512 W/m 14,3 C 17,4 C 11,3 km/h (2 Bft) 97,87 %
21.06.2016 09:36 18,0 C 78 % 1021,3 hPa 0,0 l/m 6,8 km/h (2 Bft) W-NW 284 2 min 0,000 mm 3,3 UV-I 521 W/m 14,1 C 17,8 C 12,9 km/h (3 Bft) 97,87 %
21.06.2016 09:38 18,1 C 77 % 1021,3 hPa 0,0 l/m 3,7 km/h (1 Bft) W 260 2 min 0,000 mm 3,3 UV-I 534 W/m 14,0 C 18,1 C 6,4 km/h (2 Bft) 95,74 %
21.06.2016 09:40 18,3 C 80 % 1021,4 hPa 0,0 l/m 5,2 km/h (1 Bft) W 265 2 min 0,000 mm 3,4 UV-I 548 W/m 14,8 C 18,3 C 9,7 km/h (2 Bft) 100,00 %
21.06.2016 09:42 18,3 C 78 % 1021,3 hPa 0,0 l/m 2,6 km/h (1 Bft) W 259 2 min 0,000 mm 3,4 UV-I 564 W/m 14,4 C 18,3 C 6,4 km/h (2 Bft) 97,87 %
21.06.2016 09:44 18,4 C 77 % 1021,4 hPa 0,0 l/m 5,2 km/h (1 Bft) W-SW 248 2 min 0,000 mm 3,4 UV-I 579 W/m 14,3 C 18,4 C 11,3 km/h (2 Bft) 100,00 %
21.06.2016 09:46 18,6 C 77 % 1021,4 hPa 0,0 l/m 5,4 km/h (1 Bft) W-SW 258 2 min 0,000 mm 3,5 UV-I 597 W/m 14,5 C 18,6 C 14,5 km/h (3 Bft) 95,83 %
21.06.2016 09:48 18,7 C 76 % 1021,4 hPa 0,0 l/m 9,2 km/h (2 Bft) W 261 2 min 0,000 mm 3,5 UV-I 611 W/m 14,4 C 17,5 C 14,5 km/h (3 Bft) 97,87 %
21.06.2016 09:50 18,8 C 75 % 1021,4 hPa 0,0 l/m 6,1 km/h (2 Bft) S-SW 194 2 min 0,000 mm 3,6 UV-I 625 W/m 14,3 C 18,8 C 14,5 km/h (3 Bft) 97,87 %
21.06.2016 09:52 18,8 C 75 % 1021,4 hPa 0,0 l/m 10,4 km/h (2 Bft) SW 221 2 min 0,000 mm 3,7 UV-I 639 W/m 14,3 C 17,2 C 16,1 km/h (3 Bft) 100,00 %
21.06.2016 09:54 18,9 C 74 % 1021,4 hPa 0,0 l/m 8,4 km/h (2 Bft) W-SW 238 2 min 0,000 mm 3,7 UV-I 650 W/m 14,2 C 18,0 C 14,5 km/h (3 Bft) 97,87 %
21.06.2016 09:56 19,0 C 75 % 1021,3 hPa 0,0 l/m 7,4 km/h (2 Bft) SW 232 2 min 0,000 mm 3,8 UV-I 656 W/m 14,5 C 18,6 C 14,5 km/h (3 Bft) 97,87 %
21.06.2016 09:58 19,0 C 75 % 1021,3 hPa 0,0 l/m 6,0 km/h (2 Bft) SW 227 2 min 0,000 mm 3,9 UV-I 662 W/m 14,5 C 19,0 C 11,3 km/h (2 Bft) 100,00 %
21.06.2016 10:00 19,1 C 76 % 1021,4 hPa 0,0 l/m 4,7 km/h (1 Bft) S-SW 197 2 min 0,279 mm 3,9 UV-I 669 W/m 14,8 C 19,1 C 9,7 km/h (2 Bft) 95,74 %
21.06.2016 10:02 19,2 C 75 % 1021,4 hPa 0,0 l/m 3,1 km/h (1 Bft) W 275 2 min 0,000 mm 3,9 UV-I 674 W/m 14,7 C 19,2 C 4,8 km/h (1 Bft) 100,00 %
21.06.2016 10:04 19,2 C 74 % 1021,4 hPa 0,0 l/m 4,1 km/h (1 Bft) W 274 2 min 0,000 mm 4,0 UV-I 682 W/m 14,4 C 19,2 C 9,7 km/h (2 Bft) 100,00 %
21.06.2016 10:06 19,3 C 76 % 1021,4 hPa 0,0 l/m 3,3 km/h (1 Bft) W-SW 244 2 min 0,000 mm 4,0 UV-I 689 W/m 15,0 C 19,3 C 6,4 km/h (2 Bft) 97,96 %
21.06.2016 10:08 19,3 C 73 % 1021,5 hPa 0,0 l/m 5,7 km/h (1 Bft) W 265 2 min 0,000 mm 4,1 UV-I 700 W/m 14,3 C 19,3 C 11,3 km/h (2 Bft) 100,00 %
21.06.2016 10:10 19,3 C 71 % 1021,5 hPa 0,0 l/m 5,9 km/h (2 Bft) W 280 2 min 0,000 mm 4,2 UV-I 715 W/m 13,9 C 19,3 C 11,3 km/h (2 Bft) 100,00 %
21.06.2016 10:12 19,3 C 73 % 1021,5 hPa 0,0 l/m 5,1 km/h (1 Bft) SW 215 2 min 0,000 mm 4,3 UV-I 735 W/m 14,3 C 19,3 C 9,7 km/h (2 Bft) 97,87 %
21.06.2016 10:14 19,5 C 76 % 1021,5 hPa 0,0 l/m 5,1 km/h (1 Bft) W 261 2 min 0,000 mm 4,5 UV-I 763 W/m 15,2 C 19,5 C 11,3 km/h (2 Bft) 97,87 %
21.06.2016 10:16 19,6 C 71 % 1021,5 hPa 0,0 l/m 3,6 km/h (1 Bft) SW 227 2 min 0,000 mm 4,7 UV-I 800 W/m 14,2 C 19,6 C 6,4 km/h (2 Bft) 100,00 %
21.06.2016 10:18 19,7 C 74 % 1021,5 hPa 0,0 l/m 4,5 km/h (1 Bft) W-SW 257 2 min 0,000 mm 4,6 UV-I 797 W/m 14,9 C 19,7 C 6,4 km/h (2 Bft) 95,74 %
21.06.2016 10:20 19,8 C 70 % 1021,5 hPa 0,0 l/m 8,4 km/h (2 Bft) W-SW 240 2 min 0,000 mm 5,0 UV-I 893 W/m 14,2 C 19,0 C 12,9 km/h (3 Bft) 98,00 %
21.06.2016 10:22 19,8 C 71 % 1021,5 hPa 0,0 l/m 4,4 km/h (1 Bft) S-SW 205 2 min 0,000 mm 5,0 UV-I 906 W/m 14,4 C 19,8 C 8,0 km/h (2 Bft) 100,00 %
21.06.2016 10:24 19,8 C 72 % 1021,5 hPa 0,0 l/m 5,0 km/h (1 Bft) W-SW 253 2 min 0,000 mm 4,6 UV-I 835 W/m 14,6 C 19,8 C 12,9 km/h (3 Bft) 100,00 %
21.06.2016 10:26 19,9 C 69 % 1021,5 hPa 0,0 l/m 5,2 km/h (1 Bft) W-SW 244 2 min 0,000 mm 4,0 UV-I 593 W/m 14,0 C 19,9 C 9,7 km/h (2 Bft) 100,00 %
21.06.2016 10:28 19,8 C 76 % 1021,5 hPa 0,0 l/m 1,7 km/h (1 Bft) W 273 2 min 0,000 mm 4,4 UV-I 580 W/m 15,4 C 19,8 C 4,8 km/h (1 Bft) 100,00 %
21.06.2016 10:30 19,9 C 70 % 1021,5 hPa 0,0 l/m 2,6 km/h (1 Bft) W-NW 298 2 min 0,000 mm 4,5 UV-I 680 W/m 14,3 C 19,9 C 8,0 km/h (2 Bft) 97,87 %
21.06.2016 10:32 19,9 C 73 % 1021,4 hPa 0,0 l/m 2,8 km/h (1 Bft) W-SW 258 2 min 0,000 mm 4,3 UV-I 641 W/m 14,9 C 19,9 C 11,3 km/h (2 Bft) 100,00 %
21.06.2016 10:34 20,0 C 71 % 1021,4 hPa 0,0 l/m 6,1 km/h (2 Bft) S-SW 198 2 min 0,000 mm 4,7 UV-I 594 W/m 14,6 C 20,0 C 8,0 km/h (2 Bft) 97,87 %
21.06.2016 10:36 20,1 C 73 % 1021,4 hPa 0,0 l/m 3,7 km/h (1 Bft) NW 316 2 min 0,000 mm 5,0 UV-I 746 W/m 15,1 C 20,1 C 6,4 km/h (2 Bft) 100,00 %
21.06.2016 10:38 20,2 C 72 % 1021,4 hPa 0,0 l/m 3,3 km/h (1 Bft) S 172 2 min 0,000 mm 5,0 UV-I 781 W/m 15,0 C 20,2 C 6,4 km/h (2 Bft) 100,00 %
21.06.2016 10:40 20,3 C 67 % 1021,4 hPa 0,0 l/m 5,2 km/h (1 Bft) N-NO 15 2 min 0,000 mm 5,1 UV-I 790 W/m 14,0 C 20,3 C 14,5 km/h (3 Bft) 97,87 %
21.06.2016 10:42 20,2 C 69 % 1021,5 hPa 0,0 l/m 3,9 km/h (1 Bft) NW 318 2 min 0,000 mm 5,2 UV-I 803 W/m 14,3 C 20,2 C 8,0 km/h (2 Bft) 100,00 %
21.06.2016 10:44 20,2 C 68 % 1021,5 hPa 0,0 l/m 5,4 km/h (1 Bft) W 274 2 min 0,000 mm 5,3 UV-I 803 W/m 14,1 C 20,2 C 9,7 km/h (2 Bft) 100,00 %
21.06.2016 10:46 20,1 C 68 % 1021,5 hPa 0,0 l/m 2,8 km/h (1 Bft) N-NW 346 2 min 0,000 mm 5,3 UV-I 809 W/m 14,0 C 20,1 C 6,4 km/h (2 Bft) 100,00 %
21.06.2016 10:48 20,1 C 69 % 1021,5 hPa 0,0 l/m 3,6 km/h (1 Bft) N-NW 345 2 min 0,000 mm 5,4 UV-I 809 W/m 14,2 C 20,1 C 6,4 km/h (2 Bft) 100,00 %
21.06.2016 10:50 20,2 C 72 % 1021,5 hPa 0,0 l/m 3,8 km/h (1 Bft) N 9 2 min 0,000 mm 5,4 UV-I 804 W/m 15,0 C 20,2 C 8,0 km/h (2 Bft) 100,00 %
21.06.2016 10:52 20,3 C 71 % 1021,5 hPa 0,0 l/m 3,1 km/h (1 Bft) N-NW 343 2 min 0,000 mm 5,4 UV-I 802 W/m 14,9 C 20,3 C 4,8 km/h (1 Bft) 100,00 %
21.06.2016 10:54 20,5 C 72 % 1021,6 hPa 0,0 l/m 3,0 km/h (1 Bft) NW 316 2 min 0,000 mm 5,4 UV-I 799 W/m 15,3 C 20,5 C 6,4 km/h (2 Bft) 100,00 %
21.06.2016 10:56 20,4 C 67 % 1021,6 hPa 0,0 l/m 4,9 km/h (1 Bft) W-SW 250 2 min 0,000 mm 5,4 UV-I 790 W/m 14,1 C 20,4 C 8,0 km/h (2 Bft) 97,87 %
21.06.2016 10:58 20,4 C 68 % 1021,6 hPa 0,0 l/m 1,5 km/h (1 Bft) N-NW 343 2 min 0,000 mm 5,4 UV-I 785 W/m 14,3 C 20,4 C 3,2 km/h (1 Bft) 95,74 %
21.06.2016 11:00 20,3 C 69 % 1021,6 hPa 0,0 l/m 2,6 km/h (1 Bft) W-NW 298 2 min 0,457 mm 5,4 UV-I 761 W/m 14,4 C 20,3 C 6,4 km/h (2 Bft) 100,00 %
21.06.2016 11:02 20,3 C 70 % 1021,7 hPa 0,0 l/m 2,1 km/h (1 Bft) N-NW 336 2 min 0,000 mm 5,5 UV-I 793 W/m 14,6 C 20,3 C 4,8 km/h (1 Bft) 100,00 %
21.06.2016 11:04 20,3 C 66 % 1021,6 hPa 0,0 l/m 2,6 km/h (1 Bft) W-NW 302 2 min 0,000 mm 5,4 UV-I 812 W/m 13,7 C 20,3 C 6,4 km/h (2 Bft) 100,00 %
21.06.2016 11:06 20,4 C 69 % 1021,6 hPa 0,0 l/m 1,1 km/h (1 Bft) W-NW 302 2 min 0,000 mm 5,0 UV-I 858 W/m 14,5 C 20,4 C 3,2 km/h (1 Bft) 95,74 %
21.06.2016 11:08 20,4 C 67 % 1021,6 hPa 0,0 l/m 2,8 km/h (1 Bft) N-NO 13 2 min 0,000 mm 5,6 UV-I 839 W/m 14,1 C 20,4 C 6,4 km/h (2 Bft) 96,00 %
21.06.2016 11:10 20,7 C 69 % 1021,6 hPa 0,0 l/m 3,1 km/h (1 Bft) NW 304 2 min 0,000 mm 5,8 UV-I 821 W/m 14,8 C 20,7 C 8,0 km/h (2 Bft) 95,92 %
21.06.2016 11:12 20,9 C 66 % 1021,6 hPa 0,0 l/m 4,0 km/h (1 Bft) SW 220 2 min 0,000 mm 5,9 UV-I 871 W/m 14,3 C 20,9 C 8,0 km/h (2 Bft) 97,92 %
21.06.2016 11:14 21,1 C 71 % 1021,6 hPa 0,0 l/m 3,0 km/h (1 Bft) N-NW 348 2 min 0,000 mm 5,7 UV-I 830 W/m 15,6 C 21,1 C 6,4 km/h (2 Bft) 97,87 %
21.06.2016 11:16 21,1 C 66 % 1021,7 hPa 0,0 l/m 3,5 km/h (1 Bft) W-SW 240 2 min 0,000 mm 5,7 UV-I 822 W/m 14,5 C 21,1 C 8,0 km/h (2 Bft) 97,87 %
21.06.2016 11:18 21,0 C 65 % 1021,6 hPa 0,0 l/m 2,7 km/h (1 Bft) N-NW 335 2 min 0,000 mm 5,4 UV-I 783 W/m 14,2 C 21,0 C 6,4 km/h (2 Bft) 97,87 %
21.06.2016 11:20 20,9 C 67 % 1021,7 hPa 0,0 l/m 3,3 km/h (1 Bft) N-NW 329 2 min 0,000 mm 5,5 UV-I 785 W/m 14,5 C 20,9 C 6,4 km/h (2 Bft) 95,74 %
21.06.2016 11:22 20,8 C 68 % 1021,7 hPa 0,0 l/m 3,9 km/h (1 Bft) N 355 2 min 0,000 mm 5,3 UV-I 746 W/m 14,7 C 20,8 C 8,0 km/h (2 Bft) 97,87 %
21.06.2016 11:24 20,8 C 65 % 1021,7 hPa 0,0 l/m 2,7 km/h (1 Bft) N-NW 328 2 min 0,000 mm 5,0 UV-I 701 W/m 14,0 C 20,8 C 6,4 km/h (2 Bft) 97,87 %
21.06.2016 11:26 20,9 C 70 % 1021,7 hPa 0,0 l/m 2,8 km/h (1 Bft) N-NO 20 2 min 0,000 mm 4,7 UV-I 628 W/m 15,2 C 20,9 C 6,4 km/h (2 Bft) 97,87 %
21.06.2016 11:28 20,9 C 70 % 1021,7 hPa 0,0 l/m 1,2 km/h (1 Bft) N 351 2 min 0,000 mm 4,3 UV-I 560 W/m 15,2 C 20,9 C 3,2 km/h (1 Bft) 97,87 %
21.06.2016 11:30 20,8 C 66 % 1021,7 hPa 0,0 l/m 2,1 km/h (1 Bft) NW 323 2 min 0,000 mm 4,4 UV-I 595 W/m 14,2 C 20,8 C 6,4 km/h (2 Bft) 97,87 %
21.06.2016 11:32 20,8 C 72 % 1021,7 hPa 0,0 l/m 2,1 km/h (1 Bft) N-NO 18 2 min 0,000 mm 4,4 UV-I 576 W/m 15,6 C 20,8 C 4,8 km/h (1 Bft) 97,87 %
21.06.2016 11:34 20,8 C 73 % 1021,7 hPa 0,0 l/m 1,5 km/h (1 Bft) N 10 2 min 0,000 mm 4,2 UV-I 541 W/m 15,8 C 20,8 C 3,2 km/h (1 Bft) 97,87 %
21.06.2016 11:36 20,8 C 71 % 1021,7 hPa 0,0 l/m 3,5 km/h (1 Bft) NW 313 0 min 0,000 mm 3,5 UV-I 429 W/m 15,3 C 20,8 C 6,4 km/h (2 Bft) 97,14 %
21.06.2016 11:38 20,7 C 65 % 1021,7 hPa 0,0 l/m 2,5 km/h (1 Bft) N 5 0 min 0,000 mm 3,5 UV-I 382 W/m 13,9 C 20,7 C 6,4 km/h (2 Bft) 100,00 %
21.06.2016 11:40 20,5 C 66 % 1021,6 hPa 0,0 l/m 1,1 km/h (1 Bft) N-NW 346 0 min 0,000 mm 3,8 UV-I 436 W/m 13,9 C 20,5 C 3,2 km/h (1 Bft) 97,87 %
21.06.2016 11:42 20,6 C 70 % 1021,6 hPa 0,0 l/m 0,9 km/h (0 Bft) W 278 2 min 0,000 mm 4,7 UV-I 556 W/m 14,9 C 20,6 C 3,2 km/h (1 Bft) 97,92 %
21.06.2016 11:44 20,7 C 70 % 1021,7 hPa 0,0 l/m 0,5 km/h (0 Bft) W 278 2 min 0,000 mm 5,5 UV-I 743 W/m 15,0 C 20,7 C 1,6 km/h (1 Bft) 95,74 %
21.06.2016 11:46 21,1 C 67 % 1021,6 hPa 0,0 l/m 1,6 km/h (1 Bft) W-NW 289 2 min 0,000 mm 5,8 UV-I 817 W/m 14,7 C 21,1 C 3,2 km/h (1 Bft) 93,62 %
21.06.2016 11:48 21,2 C 67 % 1021,6 hPa 0,0 l/m 3,9 km/h (1 Bft) N-NW 332 2 min 0,000 mm 6,1 UV-I 801 W/m 14,8 C 21,2 C 9,7 km/h (2 Bft) 100,00 %
21.06.2016 11:50 21,2 C 67 % 1021,6 hPa 0,0 l/m 4,7 km/h (1 Bft) N-NO 17 2 min 0,000 mm 6,2 UV-I 990 W/m 14,8 C 21,2 C 12,9 km/h (3 Bft) 100,00 %
21.06.2016 11:52 21,2 C 64 % 1021,6 hPa 0,0 l/m 2,7 km/h (1 Bft) N 360 2 min 0,000 mm 6,1 UV-I 896 W/m 14,1 C 21,2 C 11,3 km/h (2 Bft) 97,87 %
21.06.2016 11:54 21,2 C 65 % 1021,5 hPa 0,0 l/m 5,7 km/h (1 Bft) W 275 2 min 0,000 mm 6,1 UV-I 805 W/m 14,4 C 21,2 C 17,7 km/h (3 Bft) 100,00 %
21.06.2016 11:56 21,2 C 65 % 1021,5 hPa 0,0 l/m 3,6 km/h (1 Bft) N-NW 327 2 min 0,000 mm 6,5 UV-I 812 W/m 14,4 C 21,2 C 8,0 km/h (2 Bft) 100,00 %
21.06.2016 11:58 21,3 C 66 % 1021,5 hPa 0,0 l/m 5,4 km/h (1 Bft) W-NW 293 2 min 0,000 mm 6,6 UV-I 926 W/m 14,7 C 21,3 C 11,3 km/h (2 Bft) 97,87 %
21.06.2016 12:00 21,3 C 65 % 1021,5 hPa 0,0 l/m 3,8 km/h (1 Bft) O-NO 59 2 min 0,432 mm 6,5 UV-I 976 W/m 14,4 C 21,3 C 9,7 km/h (2 Bft) 100,00 %
21.06.2016 12:02 21,3 C 69 % 1021,4 hPa 0,0 l/m 3,1 km/h (1 Bft) N 355 2 min 0,000 mm 6,4 UV-I 893 W/m 15,4 C 21,3 C 9,7 km/h (2 Bft) 100,00 %
21.06.2016 12:04 21,4 C 68 % 1021,5 hPa 0,0 l/m 2,4 km/h (1 Bft) N-NO 12 2 min 0,000 mm 6,5 UV-I 893 W/m 15,2 C 21,4 C 6,4 km/h (2 Bft) 97,87 %
21.06.2016 12:06 21,3 C 67 % 1021,5 hPa 0,0 l/m 2,3 km/h (1 Bft) N 350 2 min 0,000 mm 6,3 UV-I 854 W/m 14,9 C 21,3 C 3,2 km/h (1 Bft) 100,00 %
21.06.2016 12:08 21,3 C 66 % 1021,6 hPa 0,0 l/m 3,7 km/h (1 Bft) N-NO 24 2 min 0,000 mm 6,3 UV-I 778 W/m 14,7 C 21,3 C 8,0 km/h (2 Bft) 100,00 %
21.06.2016 12:10 21,2 C 63 % 1021,6 hPa 0,0 l/m 5,8 km/h (2 Bft) W-NW 296 2 min 0,000 mm 6,0 UV-I 773 W/m 13,9 C 21,2 C 12,9 km/h (3 Bft) 95,74 %
21.06.2016 12:12 21,1 C 69 % 1021,6 hPa 0,0 l/m 1,6 km/h (1 Bft) N 5 2 min 0,000 mm 6,0 UV-I 711 W/m 15,2 C 21,1 C 3,2 km/h (1 Bft) 100,00 %
21.06.2016 12:14 21,2 C 68 % 1021,6 hPa 0,0 l/m 1,7 km/h (1 Bft) N 11 2 min 0,000 mm 5,4 UV-I 665 W/m 15,1 C 21,2 C 4,8 km/h (1 Bft) 100,00 %
21.06.2016 12:16 21,2 C 66 % 1021,6 hPa 0,0 l/m 1,3 km/h (1 Bft) NW 325 2 min 0,000 mm 5,4 UV-I 682 W/m 14,6 C 21,2 C 3,2 km/h (1 Bft) 100,00 %
21.06.2016 12:18 21,2 C 68 % 1021,6 hPa 0,0 l/m 2,1 km/h (1 Bft) NW 309 2 min 0,000 mm 5,1 UV-I 717 W/m 15,1 C 21,2 C 4,8 km/h (1 Bft) 100,00 %
21.06.2016 12:20 21,2 C 66 % 1021,6 hPa 0,0 l/m 3,2 km/h (1 Bft) N-NW 333 2 min 0,000 mm 4,5 UV-I 602 W/m 14,6 C 21,2 C 8,0 km/h (2 Bft) 100,00 %
21.06.2016 12:22 21,2 C 67 % 1021,6 hPa 0,0 l/m 2,8 km/h (1 Bft) NW 313 0 min 0,000 mm 4,0 UV-I 459 W/m 14,8 C 21,2 C 8,0 km/h (2 Bft) 98,00 %
21.06.2016 12:24 21,1 C 68 % 1021,7 hPa 0,0 l/m 2,2 km/h (1 Bft) N 349 0 min 0,000 mm 3,8 UV-I 420 W/m 15,0 C 21,1 C 4,8 km/h (1 Bft) 100,00 %
21.06.2016 12:26 20,9 C 68 % 1021,7 hPa 0,0 l/m 0,5 km/h (0 Bft) N-NW 344 0 min 0,000 mm 3,7 UV-I 418 W/m 14,8 C 20,9 C 1,6 km/h (1 Bft) 100,00 %
21.06.2016 12:28 20,8 C 64 % 1021,7 hPa 0,0 l/m 1,0 km/h (0 Bft) N-NW 333 0 min 0,000 mm 3,8 UV-I 457 W/m 13,7 C 20,8 C 3,2 km/h (1 Bft) 100,00 %
21.06.2016 12:30 20,7 C 65 % 1021,6 hPa 0,0 l/m 3,1 km/h (1 Bft) N-NO 33 0 min 0,000 mm 3,6 UV-I 427 W/m 13,9 C 20,7 C 6,4 km/h (2 Bft) 100,00 %
21.06.2016 12:32 20,8 C 67 % 1021,7 hPa 0,0 l/m 3,5 km/h (1 Bft) N-NO 13 0 min 0,000 mm 3,4 UV-I 403 W/m 14,4 C 20,8 C 8,0 km/h (2 Bft) 97,87 %
21.06.2016 12:34 20,7 C 67 % 1021,7 hPa 0,0 l/m 3,5 km/h (1 Bft) N 5 0 min 0,000 mm 3,3 UV-I 364 W/m 14,3 C 20,7 C 8,0 km/h (2 Bft) 97,87 %
21.06.2016 12:36 20,8 C 68 % 1021,7 hPa 0,0 l/m 2,7 km/h (1 Bft) N-NW 345 2 min 0,000 mm 4,5 UV-I 526 W/m 14,7 C 20,8 C 4,8 km/h (1 Bft) 97,87 %
21.06.2016 12:38 20,8 C 69 % 1021,7 hPa 0,0 l/m 3,8 km/h (1 Bft) NW 321 2 min 0,000 mm 4,8 UV-I 587 W/m 14,9 C 20,8 C 9,7 km/h (2 Bft) 95,74 %
21.06.2016 12:40 20,9 C 71 % 1021,7 hPa 0,0 l/m 3,2 km/h (1 Bft) N-NW 348 2 min 0,000 mm 4,5 UV-I 638 W/m 15,4 C 20,9 C 6,4 km/h (2 Bft) 100,00 %
21.06.2016 12:42 20,9 C 66 % 1021,8 hPa 0,0 l/m 3,5 km/h (1 Bft) N-NO 24 0 min 0,000 mm 3,5 UV-I 385 W/m 14,3 C 20,9 C 6,4 km/h (2 Bft) 100,00 %
21.06.2016 12:44 20,9 C 69 % 1021,7 hPa 0,0 l/m 3,8 km/h (1 Bft) W-NW 291 0 min 0,000 mm 3,5 UV-I 375 W/m 15,0 C 20,9 C 8,0 km/h (2 Bft) 98,00 %
21.06.2016 12:46 20,8 C 67 % 1021,8 hPa 0,0 l/m 3,9 km/h (1 Bft) W-SW 250 0 min 0,000 mm 3,2 UV-I 326 W/m 14,4 C 20,8 C 6,4 km/h (2 Bft) 100,00 %
21.06.2016 12:48 20,8 C 67 % 1021,8 hPa 0,0 l/m 2,6 km/h (1 Bft) SW 233 0 min 0,000 mm 3,3 UV-I 334 W/m 14,4 C 20,8 C 4,8 km/h (1 Bft) 100,00 %
21.06.2016 12:50 20,8 C 70 % 1021,8 hPa 0,0 l/m 1,9 km/h (1 Bft) N-NW 343 0 min 0,000 mm 3,8 UV-I 430 W/m 15,1 C 20,8 C 3,2 km/h (1 Bft) 100,00 %
21.06.2016 12:52 20,9 C 71 % 1021,8 hPa 0,0 l/m 1,2 km/h (1 Bft) N 355 2 min 0,000 mm 4,2 UV-I 518 W/m 15,4 C 20,9 C 3,2 km/h (1 Bft) 100,00 %
21.06.2016 12:54 21,0 C 68 % 1021,8 hPa 0,0 l/m 4,2 km/h (1 Bft) N-NW 332 2 min 0,000 mm 5,0 UV-I 638 W/m 14,9 C 21,0 C 12,9 km/h (3 Bft) 100,00 %
21.06.2016 12:56 21,2 C 73 % 1021,8 hPa 0,0 l/m 3,6 km/h (1 Bft) N-NO 17 2 min 0,000 mm 5,5 UV-I 690 W/m 16,2 C 21,2 C 8,0 km/h (2 Bft) 100,00 %
21.06.2016 12:58 21,3 C 71 % 1021,8 hPa 0,0 l/m 5,2 km/h (1 Bft) W 263 2 min 0,000 mm 5,7 UV-I 754 W/m 15,8 C 21,3 C 12,9 km/h (3 Bft) 100,00 %
21.06.2016 13:00 21,4 C 67 % 1021,9 hPa 0,0 l/m 4,2 km/h (1 Bft) N-NO 33 2 min 0,000 mm 5,8 UV-I 759 W/m 15,0 C 21,4 C 11,3 km/h (2 Bft) 97,87 %
21.06.2016 13:02 21,4 C 68 % 1021,9 hPa 0,0 l/m 3,9 km/h (1 Bft) N 360 2 min 0,356 mm 5,1 UV-I 653 W/m 15,2 C 21,4 C 8,0 km/h (2 Bft) 97,44 %
21.06.2016 13:04 21,4 C 68 % 1021,9 hPa 0,0 l/m 3,5 km/h (1 Bft) N 5 2 min 0,000 mm 4,6 UV-I 579 W/m 15,2 C 21,4 C 6,4 km/h (2 Bft) 98,00 %
21.06.2016 13:06 21,5 C 70 % 1021,9 hPa 0,0 l/m 5,7 km/h (1 Bft) N-NO 17 2 min 0,000 mm 4,4 UV-I 543 W/m 15,8 C 21,5 C 14,5 km/h (3 Bft) 95,74 %
21.06.2016 13:08 21,4 C 65 % 1021,9 hPa 0,0 l/m 3,8 km/h (1 Bft) NW 306 2 min 0,000 mm 4,2 UV-I 511 W/m 14,5 C 21,4 C 6,4 km/h (2 Bft) 97,87 %
21.06.2016 13:10 21,3 C 70 % 1021,9 hPa 0,0 l/m 2,9 km/h (1 Bft) NW 306 2 min 0,000 mm 4,2 UV-I 500 W/m 15,6 C 21,3 C 6,4 km/h (2 Bft) 97,87 %
21.06.2016 13:12 21,2 C 67 % 1021,9 hPa 0,0 l/m 4,0 km/h (1 Bft) NW 321 2 min 0,000 mm 4,5 UV-I 553 W/m 14,8 C 21,2 C 12,9 km/h (3 Bft) 97,87 %
21.06.2016 13:14 21,2 C 66 % 1021,9 hPa 0,0 l/m 5,7 km/h (1 Bft) W-NW 297 2 min 0,000 mm 4,4 UV-I 553 W/m 14,6 C 21,2 C 12,9 km/h (3 Bft) 97,87 %
21.06.2016 13:16 21,1 C 65 % 1022,0 hPa 0,0 l/m 4,1 km/h (1 Bft) NW 306 2 min 0,000 mm 4,1 UV-I 514 W/m 14,3 C 21,1 C 6,4 km/h (2 Bft) 96,00 %
21.06.2016 13:18 21,0 C 67 % 1022,0 hPa 0,0 l/m 3,9 km/h (1 Bft) W-NW 294 2 min 0,000 mm 3,9 UV-I 498 W/m 14,6 C 21,0 C 6,4 km/h (2 Bft) 95,74 %
21.06.2016 13:20 21,1 C 69 % 1022,0 hPa 0,0 l/m 2,4 km/h (1 Bft) N-NW 330 0 min 0,000 mm 3,7 UV-I 463 W/m 15,2 C 21,1 C 6,4 km/h (2 Bft) 94,00 %
21.06.2016 13:22 21,2 C 70 % 1022,0 hPa 0,0 l/m 2,8 km/h (1 Bft) N-NO 20 0 min 0,000 mm 3,4 UV-I 429 W/m 15,5 C 21,2 C 6,4 km/h (2 Bft) 100,00 %
21.06.2016 13:24 21,1 C 69 % 1022,0 hPa 0,0 l/m 2,8 km/h (1 Bft) N-NW 340 0 min 0,000 mm 3,4 UV-I 432 W/m 15,2 C 21,1 C 8,0 km/h (2 Bft) 93,62 %
21.06.2016 13:26 21,1 C 70 % 1022,0 hPa 0,0 l/m 3,6 km/h (1 Bft) N-NW 346 0 min 0,000 mm 3,0 UV-I 373 W/m 15,4 C 21,1 C 12,9 km/h (3 Bft) 97,87 %
21.06.2016 13:28 21,1 C 70 % 1022,0 hPa 0,0 l/m 2,8 km/h (1 Bft) NW 323 0 min 0,000 mm 2,8 UV-I 332 W/m 15,4 C 21,1 C 8,0 km/h (2 Bft) 95,74 %
21.06.2016 13:30 20,9 C 70 % 1022,0 hPa 0,0 l/m 2,2 km/h (1 Bft) N 349 0 min 0,000 mm 3,2 UV-I 390 W/m 15,2 C 20,9 C 8,0 km/h (2 Bft) 97,87 %
21.06.2016 13:32 20,8 C 69 % 1021,9 hPa 0,0 l/m 2,7 km/h (1 Bft) N-NO 12 0 min 0,000 mm 3,5 UV-I 446 W/m 14,9 C 20,8 C 4,8 km/h (1 Bft) 91,49 %
21.06.2016 13:34 20,8 C 70 % 1021,9 hPa 0,0 l/m 2,8 km/h (1 Bft) N 11 0 min 0,000 mm 3,3 UV-I 407 W/m 15,1 C 20,8 C 6,4 km/h (2 Bft) 100,00 %
21.06.2016 13:36 20,8 C 72 % 1021,9 hPa 0,0 l/m 3,1 km/h (1 Bft) N 350 0 min 0,000 mm 2,8 UV-I 328 W/m 15,6 C 20,8 C 6,4 km/h (2 Bft) 100,00 %
21.06.2016 13:38 20,7 C 72 % 1021,9 hPa 0,0 l/m 4,9 km/h (1 Bft) N 5 0 min 0,000 mm 2,5 UV-I 292 W/m 15,5 C 20,7 C 11,3 km/h (2 Bft) 100,00 %
21.06.2016 13:40 20,6 C 71 % 1021,9 hPa 0,0 l/m 3,0 km/h (1 Bft) NW 306 0 min 0,000 mm 2,7 UV-I 303 W/m 15,2 C 20,6 C 6,4 km/h (2 Bft) 100,00 %
21.06.2016 13:42 20,6 C 72 % 1021,9 hPa 0,0 l/m 2,9 km/h (1 Bft) N 11 0 min 0,000 mm 2,8 UV-I 331 W/m 15,4 C 20,6 C 4,8 km/h (1 Bft) 98,00 %
21.06.2016 13:44 20,6 C 73 % 1021,9 hPa 0,0 l/m 3,6 km/h (1 Bft) N-NW 341 0 min 0,000 mm 3,0 UV-I 359 W/m 15,6 C 20,6 C 8,0 km/h (2 Bft) 97,87 %
21.06.2016 13:46 20,6 C 74 % 1021,9 hPa 0,0 l/m 2,7 km/h (1 Bft) N-NW 338 0 min 0,000 mm 3,3 UV-I 395 W/m 15,8 C 20,6 C 8,0 km/h (2 Bft) 100,00 %
21.06.2016 13:48 20,6 C 72 % 1021,8 hPa 0,0 l/m 3,8 km/h (1 Bft) NW 324 0 min 0,000 mm 3,8 UV-I 452 W/m 15,4 C 20,6 C 8,0 km/h (2 Bft) 100,00 %
21.06.2016 13:50 20,7 C 72 % 1021,9 hPa 0,0 l/m 4,8 km/h (1 Bft) N-NW 346 2 min 0,000 mm 4,4 UV-I 535 W/m 15,5 C 20,7 C 12,9 km/h (3 Bft) 100,00 %
21.06.2016 13:52 20,8 C 71 % 1021,9 hPa 0,0 l/m 4,8 km/h (1 Bft) NW 310 2 min 0,000 mm 4,8 UV-I 594 W/m 15,3 C 20,8 C 9,7 km/h (2 Bft) 100,00 %
21.06.2016 13:54 20,9 C 69 % 1022,0 hPa 0,0 l/m 3,1 km/h (1 Bft) N 5 2 min 0,000 mm 4,8 UV-I 596 W/m 15,0 C 20,9 C 8,0 km/h (2 Bft) 100,00 %
21.06.2016 13:56 21,1 C 70 % 1022,0 hPa 0,0 l/m 4,4 km/h (1 Bft) N-NW 335 2 min 0,000 mm 5,1 UV-I 630 W/m 15,4 C 21,1 C 11,3 km/h (2 Bft) 100,00 %
21.06.2016 13:58 21,2 C 69 % 1022,0 hPa 0,0 l/m 3,6 km/h (1 Bft) N 5 2 min 0,000 mm 4,8 UV-I 568 W/m 15,3 C 21,2 C 11,3 km/h (2 Bft) 97,14 %
21.06.2016 14:00 21,2 C 71 % 1022,0 hPa 0,0 l/m 7,2 km/h (2 Bft) N-NO 12 2 min 0,000 mm 4,2 UV-I 504 W/m 15,7 C 20,9 C 17,7 km/h (3 Bft) 97,96 %
21.06.2016 14:02 21,1 C 71 % 1022,0 hPa 0,0 l/m 5,8 km/h (2 Bft) N-NW 329 0 min 0,279 mm 3,8 UV-I 452 W/m 15,6 C 21,1 C 11,3 km/h (2 Bft) 100,00 %
21.06.2016 14:04 21,0 C 70 % 1022,1 hPa 0,0 l/m 3,9 km/h (1 Bft) N 9 0 min 0,000 mm 3,6 UV-I 429 W/m 15,3 C 21,0 C 6,4 km/h (2 Bft) 100,00 %
21.06.2016 14:06 20,9 C 72 % 1022,1 hPa 0,0 l/m 4,2 km/h (1 Bft) W 281 0 min 0,000 mm 3,5 UV-I 423 W/m 15,7 C 20,9 C 11,3 km/h (2 Bft) 96,23 %
21.06.2016 14:08 20,8 C 72 % 1022,1 hPa 0,0 l/m 3,6 km/h (1 Bft) N-NW 331 0 min 0,000 mm 3,6 UV-I 430 W/m 15,6 C 20,8 C 9,7 km/h (2 Bft) 100,00 %
21.06.2016 14:10 20,8 C 70 % 1022,1 hPa 0,0 l/m 1,9 km/h (1 Bft) N-NW 333 0 min 0,000 mm 3,5 UV-I 426 W/m 15,1 C 20,8 C 3,2 km/h (1 Bft) 93,62 %
21.06.2016 14:12 20,9 C 73 % 1022,1 hPa 0,0 l/m 3,3 km/h (1 Bft) NW 311 0 min 0,000 mm 3,5 UV-I 423 W/m 15,9 C 20,9 C 6,4 km/h (2 Bft) 100,00 %
21.06.2016 14:14 20,9 C 72 % 1022,1 hPa 0,0 l/m 3,6 km/h (1 Bft) N-NW 333 0 min 0,000 mm 3,5 UV-I 423 W/m 15,7 C 20,9 C 11,3 km/h (2 Bft) 100,00 %
21.06.2016 14:16 20,9 C 74 % 1022,1 hPa 0,0 l/m 3,1 km/h (1 Bft) NW 314 0 min 0,000 mm 3,3 UV-I 393 W/m 16,1 C 20,9 C 6,4 km/h (2 Bft) 97,87 %
21.06.2016 14:18 20,8 C 73 % 1022,1 hPa 0,0 l/m 4,5 km/h (1 Bft) NW 312 0 min 0,000 mm 3,0 UV-I 356 W/m 15,8 C 20,8 C 9,7 km/h (2 Bft) 100,00 %
21.06.2016 14:20 20,8 C 71 % 1022,0 hPa 0,0 l/m 5,3 km/h (1 Bft) NW 321 0 min 0,000 mm 2,8 UV-I 324 W/m 15,3 C 20,8 C 12,9 km/h (3 Bft) 98,00 %
21.06.2016 14:22 20,7 C 73 % 1022,1 hPa 0,0 l/m 2,6 km/h (1 Bft) N-NW 333 0 min 0,000 mm 2,5 UV-I 281 W/m 15,7 C 20,7 C 8,0 km/h (2 Bft) 98,00 %
21.06.2016 14:24 20,6 C 69 % 1022,0 hPa 0,0 l/m 3,2 km/h (1 Bft) N 11 0 min 0,000 mm 2,1 UV-I 236 W/m 14,7 C 20,6 C 4,8 km/h (1 Bft) 100,00 %
21.06.2016 14:26 20,3 C 72 % 1022,0 hPa 0,0 l/m 3,1 km/h (1 Bft) N-NO 15 0 min 0,000 mm 1,9 UV-I 201 W/m 15,1 C 20,3 C 4,8 km/h (1 Bft) 100,00 %
21.06.2016 14:28 20,1 C 72 % 1022,1 hPa 0,0 l/m 3,4 km/h (1 Bft) W-NW 296 0 min 0,000 mm 1,8 UV-I 186 W/m 14,9 C 20,1 C 8,0 km/h (2 Bft) 97,87 %
21.06.2016 14:30 20,0 C 74 % 1022,1 hPa 0,0 l/m 2,2 km/h (1 Bft) N-NO 20 0 min 0,000 mm 1,8 UV-I 190 W/m 15,2 C 20,0 C 4,8 km/h (1 Bft) 100,00 %
21.06.2016 14:32 19,9 C 73 % 1022,1 hPa 0,0 l/m 2,9 km/h (1 Bft) N 11 0 min 0,000 mm 2,0 UV-I 212 W/m 14,9 C 19,9 C 6,4 km/h (2 Bft) 98,00 %
21.06.2016 14:34 19,8 C 73 % 1022,1 hPa 0,0 l/m 2,8 km/h (1 Bft) N-NO 26 0 min 0,000 mm 2,2 UV-I 251 W/m 14,8 C 19,8 C 6,4 km/h (2 Bft) 100,00 %
21.06.2016 14:36 19,9 C 74 % 1022,1 hPa 0,0 l/m 3,6 km/h (1 Bft) N-NW 346 0 min 0,000 mm 2,5 UV-I 293 W/m 15,1 C 19,9 C 8,0 km/h (2 Bft) 97,87 %
21.06.2016 14:38 19,9 C 74 % 1022,1 hPa 0,0 l/m 2,8 km/h (1 Bft) N-NO 26 0 min 0,000 mm 2,8 UV-I 333 W/m 15,1 C 19,9 C 6,4 km/h (2 Bft) 100,00 %
21.06.2016 14:40 20,1 C 73 % 1022,1 hPa 0,0 l/m 1,8 km/h (1 Bft) N 350 0 min 0,000 mm 3,0 UV-I 367 W/m 15,1 C 20,1 C 3,2 km/h (1 Bft) 100,00 %
21.06.2016 14:42 20,3 C 75 % 1022,1 hPa 0,0 l/m 1,3 km/h (1 Bft) N-NW 335 0 min 0,000 mm 3,1 UV-I 389 W/m 15,7 C 20,3 C 4,8 km/h (1 Bft) 100,00 %
21.06.2016 14:44 20,4 C 75 % 1022,1 hPa 0,0 l/m 1,6 km/h (1 Bft) N 350 0 min 0,000 mm 3,1 UV-I 395 W/m 15,8 C 20,4 C 3,2 km/h (1 Bft) 100,00 %
21.06.2016 14:46 20,5 C 73 % 1022,1 hPa 0,0 l/m 2,2 km/h (1 Bft) N-NW 338 0 min 0,000 mm 3,2 UV-I 407 W/m 15,5 C 20,5 C 6,4 km/h (2 Bft) 95,74 %
21.06.2016 14:48 20,7 C 71 % 1022,0 hPa 0,0 l/m 3,7 km/h (1 Bft) N-NW 333 0 min 0,000 mm 3,5 UV-I 455 W/m 15,2 C 20,7 C 8,0 km/h (2 Bft) 100,00 %
21.06.2016 14:50 20,7 C 69 % 1022,0 hPa 0,0 l/m 3,9 km/h (1 Bft) N-NW 336 2 min 0,000 mm 3,9 UV-I 533 W/m 14,8 C 20,7 C 8,0 km/h (2 Bft) 100,00 %
21.06.2016 14:52 20,7 C 70 % 1022,0 hPa 0,0 l/m 3,6 km/h (1 Bft) N-NW 337 2 min 0,000 mm 4,0 UV-I 522 W/m 15,0 C 20,7 C 8,0 km/h (2 Bft) 97,87 %
21.06.2016 14:54 20,8 C 70 % 1022,1 hPa 0,0 l/m 3,9 km/h (1 Bft) N-NW 329 2 min 0,000 mm 3,8 UV-I 489 W/m 15,1 C 20,8 C 8,0 km/h (2 Bft) 98,00 %
21.06.2016 14:56 20,8 C 70 % 1022,0 hPa 0,0 l/m 3,4 km/h (1 Bft) N-NO 17 2 min 0,000 mm 3,8 UV-I 491 W/m 15,1 C 20,8 C 6,4 km/h (2 Bft) 97,87 %
21.06.2016 14:58 20,9 C 69 % 1022,0 hPa 0,0 l/m 3,2 km/h (1 Bft) W-NW 287 2 min 0,000 mm 3,8 UV-I 492 W/m 15,0 C 20,9 C 6,4 km/h (2 Bft) 93,62 %
21.06.2016 15:00 20,9 C 70 % 1022,1 hPa 0,0 l/m 1,9 km/h (1 Bft) NW 325 2 min 0,229 mm 3,7 UV-I 470 W/m 15,2 C 20,9 C 4,8 km/h (1 Bft) 95,74 %
21.06.2016 15:02 20,9 C 67 % 1022,1 hPa 0,0 l/m 5,1 km/h (1 Bft) NW 315 0 min 0,000 mm 3,3 UV-I 412 W/m 14,5 C 20,9 C 12,9 km/h (3 Bft) 95,83 %
21.06.2016 15:04 20,9 C 70 % 1022,0 hPa 0,0 l/m 3,2 km/h (1 Bft) N-NW 336 0 min 0,000 mm 2,9 UV-I 345 W/m 15,2 C 20,9 C 4,8 km/h (1 Bft) 97,37 %
21.06.2016 15:06 20,8 C 67 % 1022,0 hPa 0,0 l/m 2,8 km/h (1 Bft) N 351 0 min 0,000 mm 2,5 UV-I 284 W/m 14,4 C 20,8 C 6,4 km/h (2 Bft) 97,87 %
21.06.2016 15:08 20,6 C 69 % 1022,0 hPa 0,0 l/m 2,8 km/h (1 Bft) NW 309 0 min 0,000 mm 2,3 UV-I 247 W/m 14,7 C 20,6 C 9,7 km/h (2 Bft) 96,00 %
21.06.2016 15:10 20,5 C 73 % 1022,0 hPa 0,0 l/m 2,2 km/h (1 Bft) N 9 0 min 0,000 mm 2,2 UV-I 235 W/m 15,5 C 20,5 C 8,0 km/h (2 Bft) 97,87 %
21.06.2016 15:12 20,4 C 69 % 1022,1 hPa 0,0 l/m 3,6 km/h (1 Bft) N-NO 22 0 min 0,000 mm 2,1 UV-I 226 W/m 14,5 C 20,4 C 8,0 km/h (2 Bft) 97,87 %
21.06.2016 15:14 20,3 C 68 % 1022,1 hPa 0,0 l/m 3,7 km/h (1 Bft) N-NO 14 0 min 0,000 mm 2,2 UV-I 236 W/m 14,2 C 20,3 C 8,0 km/h (2 Bft) 97,87 %
21.06.2016 15:16 20,3 C 70 % 1022,1 hPa 0,0 l/m 0,7 km/h (0 Bft) N 9 0 min 0,000 mm 2,2 UV-I 260 W/m 14,6 C 20,3 C 3,2 km/h (1 Bft) 91,49 %
21.06.2016 15:20 20,3 C 71 % 1022,1 hPa 0,0 l/m 1,6 km/h (1 Bft) N 360 0 min 0,000 mm 2,7 UV-I 343 W/m 14,9 C 20,3 C 4,8 km/h (1 Bft) 100,00 %
21.06.2016 15:26 20,9 C 70 % 1022,1 hPa 0,0 l/m 3,4 km/h (1 Bft) W-NW 297 0 min 0,000 mm 3,0 UV-I 404 W/m 15,2 C 20,9 C 4,8 km/h (1 Bft) 97,03 %
21.06.2016 15:28 21,1 C 68 % 1022,1 hPa 0,0 l/m 2,9 km/h (1 Bft) N-NO 23 2 min 0,000 mm 4,5 UV-I 661 W/m 15,0 C 21,1 C 8,0 km/h (2 Bft) 98,00 %
21.06.2016 15:30 21,1 C 68 % 1022,1 hPa 0,0 l/m 5,0 km/h (1 Bft) W 274 2 min 0,000 mm 4,5 UV-I 653 W/m 15,0 C 21,1 C 11,3 km/h (2 Bft) 100,00 %
21.06.2016 15:32 21,2 C 70 % 1022,1 hPa 0,0 l/m 4,8 km/h (1 Bft) N-NO 15 2 min 0,000 mm 4,3 UV-I 622 W/m 15,5 C 21,2 C 12,9 km/h (3 Bft) 100,00 %
21.06.2016 15:34 21,4 C 69 % 1022,1 hPa 0,0 l/m 3,0 km/h (1 Bft) N-NW 331 2 min 0,000 mm 4,9 UV-I 621 W/m 15,5 C 21,4 C 6,4 km/h (2 Bft) 100,00 %
21.06.2016 15:36 21,7 C 71 % 1022,1 hPa 0,0 l/m 4,0 km/h (1 Bft) N-NW 338 2 min 0,000 mm 5,3 UV-I 632 W/m 16,2 C 21,7 C 8,0 km/h (2 Bft) 97,87 %
21.06.2016 15:38 21,8 C 68 % 1022,1 hPa 0,0 l/m 3,5 km/h (1 Bft) N-NO 25 2 min 0,000 mm 5,3 UV-I 705 W/m 15,6 C 21,8 C 6,4 km/h (2 Bft) 96,00 %
21.06.2016 15:40 21,9 C 70 % 1022,1 hPa 0,0 l/m 5,3 km/h (1 Bft) N-NO 23 2 min 0,000 mm 5,1 UV-I 699 W/m 16,2 C 21,9 C 11,3 km/h (2 Bft) 100,00 %
21.06.2016 15:42 21,9 C 67 % 1022,1 hPa 0,0 l/m 3,1 km/h (1 Bft) N-NW 330 2 min 0,000 mm 4,8 UV-I 673 W/m 15,5 C 21,9 C 6,4 km/h (2 Bft) 100,00 %
21.06.2016 15:44 21,9 C 65 % 1022,1 hPa 0,0 l/m 1,8 km/h (1 Bft) N-NO 27 2 min 0,000 mm 5,4 UV-I 764 W/m 15,0 C 21,9 C 6,4 km/h (2 Bft) 97,87 %
21.06.2016 15:46 22,1 C 64 % 1022,1 hPa 0,0 l/m 2,6 km/h (1 Bft) W-NW 286 2 min 0,000 mm 5,5 UV-I 935 W/m 15,0 C 22,1 C 4,8 km/h (1 Bft) 97,87 %
21.06.2016 15:48 22,0 C 67 % 1022,1 hPa 0,0 l/m 0,8 km/h (0 Bft) W-NW 284 2 min 0,000 mm 5,0 UV-I 819 W/m 15,6 C 22,0 C 1,6 km/h (1 Bft) 96,00 %
21.06.2016 15:50 22,1 C 63 % 1022,1 hPa 0,0 l/m 4,6 km/h (1 Bft) N-NW 343 2 min 0,000 mm 4,3 UV-I 702 W/m 14,7 C 22,1 C 9,7 km/h (2 Bft) 100,00 %
21.06.2016 15:52 22,0 C 67 % 1022,0 hPa 0,0 l/m 3,3 km/h (1 Bft) NW 323 2 min 0,000 mm 4,7 UV-I 602 W/m 15,6 C 22,0 C 6,4 km/h (2 Bft) 100,00 %
21.06.2016 15:54 22,1 C 65 % 1022,1 hPa 0,0 l/m 3,4 km/h (1 Bft) NW 307 2 min 0,000 mm 4,7 UV-I 784 W/m 15,2 C 22,1 C 6,4 km/h (2 Bft) 100,00 %
21.06.2016 15:56 22,0 C 65 % 1022,1 hPa 0,0 l/m 3,4 km/h (1 Bft) N-NO 30 2 min 0,000 mm 4,3 UV-I 733 W/m 15,1 C 22,0 C 6,4 km/h (2 Bft) 97,96 %
21.06.2016 15:58 22,0 C 67 % 1022,1 hPa 0,0 l/m 3,9 km/h (1 Bft) N-NO 20 2 min 0,000 mm 3,5 UV-I 779 W/m 15,6 C 22,0 C 6,4 km/h (2 Bft) 100,00 %
21.06.2016 16:00 21,9 C 67 % 1022,1 hPa 0,0 l/m 2,8 km/h (1 Bft) N 355 2 min 0,355 mm 3,6 UV-I 539 W/m 15,5 C 21,9 C 6,4 km/h (2 Bft) 100,00 %
21.06.2016 16:02 21,9 C 68 % 1022,1 hPa 0,0 l/m 2,4 km/h (1 Bft) N-NO 15 2 min 0,000 mm 3,6 UV-I 574 W/m 15,7 C 21,9 C 6,4 km/h (2 Bft) 100,00 %
21.06.2016 16:04 21,8 C 68 % 1022,1 hPa 0,0 l/m 3,5 km/h (1 Bft) N-NO 24 2 min 0,000 mm 3,2 UV-I 417 W/m 15,6 C 21,8 C 6,4 km/h (2 Bft) 100,00 %
21.06.2016 16:06 21,8 C 70 % 1022,1 hPa 0,0 l/m 3,0 km/h (1 Bft) N 355 2 min 0,000 mm 3,1 UV-I 416 W/m 16,1 C 21,8 C 8,0 km/h (2 Bft) 97,92 %
21.06.2016 16:08 21,7 C 70 % 1022,1 hPa 0,0 l/m 2,8 km/h (1 Bft) N 349 2 min 0,000 mm 3,0 UV-I 404 W/m 16,0 C 21,7 C 6,4 km/h (2 Bft) 100,00 %
21.06.2016 16:10 21,6 C 66 % 1022,0 hPa 0,0 l/m 2,5 km/h (1 Bft) NW 325 0 min 0,000 mm 2,8 UV-I 380 W/m 15,0 C 21,6 C 6,4 km/h (2 Bft) 100,00 %
21.06.2016 16:12 21,5 C 70 % 1022,0 hPa 0,0 l/m 3,2 km/h (1 Bft) NW 310 0 min 0,000 mm 2,7 UV-I 360 W/m 15,8 C 21,5 C 8,0 km/h (2 Bft) 100,00 %
21.06.2016 16:14 21,4 C 65 % 1022,1 hPa 0,0 l/m 3,5 km/h (1 Bft) NW 316 0 min 0,000 mm 2,6 UV-I 363 W/m 14,5 C 21,4 C 9,7 km/h (2 Bft) 100,00 %
21.06.2016 16:16 21,4 C 69 % 1022,1 hPa 0,0 l/m 1,0 km/h (0 Bft) N-NW 338 2 min 0,000 mm 2,8 UV-I 424 W/m 15,5 C 21,4 C 3,2 km/h (1 Bft) 100,00 %
21.06.2016 16:18 21,6 C 71 % 1022,0 hPa 0,0 l/m 1,9 km/h (1 Bft) N 5 2 min 0,000 mm 3,2 UV-I 549 W/m 16,1 C 21,6 C 4,8 km/h (1 Bft) 95,74 %
21.06.2016 16:20 21,8 C 69 % 1022,0 hPa 0,0 l/m 2,7 km/h (1 Bft) W-NW 298 2 min 0,000 mm 3,5 UV-I 599 W/m 15,9 C 21,8 C 4,8 km/h (1 Bft) 100,00 %
21.06.2016 16:22 21,9 C 68 % 1022,1 hPa 0,0 l/m 1,3 km/h (1 Bft) NW 313 2 min 0,000 mm 3,5 UV-I 611 W/m 15,7 C 21,9 C 3,2 km/h (1 Bft) 100,00 %
21.06.2016 16:24 22,1 C 66 % 1022,1 hPa 0,0 l/m 2,0 km/h (1 Bft) W 275 2 min 0,000 mm 3,5 UV-I 590 W/m 15,4 C 22,1 C 6,4 km/h (2 Bft) 100,00 %
21.06.2016 16:26 22,1 C 65 % 1022,0 hPa 0,0 l/m 3,4 km/h (1 Bft) W-NW 300 2 min 0,000 mm 3,2 UV-I 520 W/m 15,2 C 22,1 C 6,4 km/h (2 Bft) 97,87 %
21.06.2016 16:28 21,9 C 64 % 1022,0 hPa 0,0 l/m 1,6 km/h (1 Bft) NW 321 2 min 0,000 mm 3,1 UV-I 493 W/m 14,8 C 21,9 C 3,2 km/h (1 Bft) 97,37 %
21.06.2016 16:30 21,9 C 66 % 1022,0 hPa 0,0 l/m 2,5 km/h (1 Bft) NO 36 2 min 0,000 mm 3,1 UV-I 508 W/m 15,3 C 21,9 C 6,4 km/h (2 Bft) 100,00 %
21.06.2016 16:32 22,1 C 68 % 1022,0 hPa 0,0 l/m 3,3 km/h (1 Bft) N-NO 15 2 min 0,000 mm 3,4 UV-I 559 W/m 15,9 C 22,1 C 4,8 km/h (1 Bft) 100,00 %
21.06.2016 16:34 22,2 C 68 % 1022,0 hPa 0,0 l/m 3,2 km/h (1 Bft) N 11 2 min 0,000 mm 3,1 UV-I 532 W/m 16,0 C 22,2 C 6,4 km/h (2 Bft) 97,87 %
21.06.2016 16:36 22,2 C 68 % 1022,0 hPa 0,0 l/m 2,1 km/h (1 Bft) N-NO 24 2 min 0,000 mm 3,0 UV-I 497 W/m 16,0 C 22,2 C 4,8 km/h (1 Bft) 100,00 %
21.06.2016 16:38 22,1 C 64 % 1022,0 hPa 0,0 l/m 3,6 km/h (1 Bft) N-NO 24 2 min 0,000 mm 2,9 UV-I 472 W/m 15,0 C 22,1 C 4,8 km/h (1 Bft) 97,87 %
21.06.2016 16:40 22,1 C 65 % 1021,9 hPa 0,0 l/m 2,4 km/h (1 Bft) N-NO 28 2 min 0,000 mm 3,1 UV-I 525 W/m 15,2 C 22,1 C 4,8 km/h (1 Bft) 97,87 %
21.06.2016 16:42 22,1 C 63 % 1021,9 hPa 0,0 l/m 2,9 km/h (1 Bft) W 277 2 min 0,000 mm 2,8 UV-I 530 W/m 14,7 C 22,1 C 6,4 km/h (2 Bft) 97,92 %
21.06.2016 16:44 22,1 C 65 % 1021,9 hPa 0,0 l/m 2,1 km/h (1 Bft) W-NW 299 2 min 0,000 mm 2,6 UV-I 384 W/m 15,2 C 22,1 C 3,2 km/h (1 Bft) 100,00 %
21.06.2016 16:46 22,1 C 63 % 1021,9 hPa 0,0 l/m 2,2 km/h (1 Bft) W 276 2 min 0,000 mm 2,4 UV-I 363 W/m 14,7 C 22,1 C 4,8 km/h (1 Bft) 96,00 %
21.06.2016 16:48 22,1 C 61 % 1022,0 hPa 0,0 l/m 4,3 km/h (1 Bft) W-SW 250 2 min 0,000 mm 2,7 UV-I 425 W/m 14,2 C 22,1 C 6,4 km/h (2 Bft) 98,00 %
21.06.2016 16:50 22,1 C 62 % 1021,9 hPa 0,0 l/m 1,7 km/h (1 Bft) NW 310 2 min 0,000 mm 2,8 UV-I 493 W/m 14,5 C 22,1 C 3,2 km/h (1 Bft) 100,00 %
21.06.2016 16:52 22,1 C 63 % 1021,9 hPa 0,0 l/m 0,9 km/h (0 Bft) NW 310 2 min 0,000 mm 2,5 UV-I 468 W/m 14,7 C 22,1 C 3,2 km/h (1 Bft) 100,00 %
21.06.2016 16:54 22,1 C 63 % 1021,9 hPa 0,0 l/m 0,9 km/h (0 Bft) NW 310 2 min 0,000 mm 2,5 UV-I 400 W/m 14,7 C 22,1 C 3,2 km/h (1 Bft) 97,87 %
21.06.2016 16:56 22,1 C 67 % 1021,9 hPa 0,0 l/m 1,7 km/h (1 Bft) N-NW 333 0 min 0,000 mm 2,2 UV-I 337 W/m 15,7 C 22,1 C 4,8 km/h (1 Bft) 97,87 %
21.06.2016 16:58 22,0 C 67 % 1021,9 hPa 0,0 l/m 1,4 km/h (1 Bft) N-NW 348 0 min 0,000 mm 2,3 UV-I 327 W/m 15,6 C 22,0 C 3,2 km/h (1 Bft) 97,87 %
21.06.2016 17:00 21,9 C 64 % 1021,9 hPa 0,0 l/m 1,2 km/h (1 Bft) S-SW 201 0 min 0,000 mm 2,3 UV-I 331 W/m 14,8 C 21,9 C 3,2 km/h (1 Bft) 94,74 %
21.06.2016 17:02 21,9 C 66 % 1021,9 hPa 0,0 l/m 0,6 km/h (0 Bft) N-NW 337 0 min 0,279 mm 2,1 UV-I 318 W/m 15,3 C 21,9 C 3,2 km/h (1 Bft) 97,87 %
21.06.2016 17:04 21,8 C 67 % 1021,9 hPa 0,0 l/m 1,2 km/h (1 Bft) N 355 2 min 0,001 mm 2,1 UV-I 351 W/m 15,4 C 21,8 C 3,2 km/h (1 Bft) 98,00 %
21.06.2016 17:06 21,8 C 67 % 1021,9 hPa 0,0 l/m 1,9 km/h (1 Bft) N 5 0 min 0,000 mm 2,0 UV-I 325 W/m 15,4 C 21,8 C 4,8 km/h (1 Bft) 97,87 %
21.06.2016 17:08 21,9 C 71 % 1021,9 hPa 0,0 l/m 2,7 km/h (1 Bft) N 5 2 min 0,000 mm 2,2 UV-I 425 W/m 16,4 C 21,9 C 6,4 km/h (2 Bft) 95,74 %
21.06.2016 17:10 22,0 C 67 % 1021,9 hPa 0,0 l/m 3,2 km/h (1 Bft) NW 325 2 min 0,000 mm 2,5 UV-I 496 W/m 15,6 C 22,0 C 6,4 km/h (2 Bft) 98,00 %
21.06.2016 17:12 22,2 C 68 % 1021,9 hPa 0,0 l/m 2,7 km/h (1 Bft) N 5 2 min 0,000 mm 2,4 UV-I 508 W/m 16,0 C 22,2 C 8,0 km/h (2 Bft) 97,87 %
21.06.2016 17:14 22,2 C 68 % 1021,9 hPa 0,0 l/m 2,6 km/h (1 Bft) N-NW 336 2 min 0,000 mm 2,3 UV-I 451 W/m 16,0 C 22,2 C 6,4 km/h (2 Bft) 94,00 %
21.06.2016 17:16 22,2 C 65 % 1021,9 hPa 0,0 l/m 3,2 km/h (1 Bft) W-NW 293 2 min 0,000 mm 2,2 UV-I 425 W/m 15,3 C 22,2 C 6,4 km/h (2 Bft) 97,14 %
21.06.2016 17:18 22,2 C 64 % 1022,0 hPa 0,0 l/m 2,2 km/h (1 Bft) NW 318 2 min 0,000 mm 2,1 UV-I 410 W/m 15,1 C 22,2 C 4,8 km/h (1 Bft) 97,87 %
21.06.2016 17:20 22,2 C 66 % 1022,0 hPa 0,0 l/m 1,1 km/h (1 Bft) N-NW 327 2 min 0,000 mm 2,1 UV-I 363 W/m 15,5 C 22,2 C 3,2 km/h (1 Bft) 97,92 %
21.06.2016 17:22 22,2 C 66 % 1022,0 hPa 0,0 l/m 3,1 km/h (1 Bft) NW 311 0 min 0,000 mm 1,9 UV-I 286 W/m 15,5 C 22,2 C 4,8 km/h (1 Bft) 89,36 %
21.06.2016 17:24 22,1 C 63 % 1022,0 hPa 0,0 l/m 2,6 km/h (1 Bft) W-NW 283 0 min 0,000 mm 1,8 UV-I 295 W/m 14,7 C 22,1 C 4,8 km/h (1 Bft) 93,62 %
21.06.2016 17:26 22,0 C 63 % 1022,0 hPa 0,0 l/m 1,4 km/h (1 Bft) W 275 2 min 0,000 mm 1,9 UV-I 324 W/m 14,6 C 22,0 C 3,2 km/h (1 Bft) 97,87 %
21.06.2016 17:28 21,9 C 67 % 1022,0 hPa 0,0 l/m 0,3 km/h (0 Bft) W 275 2 min 0,000 mm 2,0 UV-I 306 W/m 15,5 C 21,9 C 1,6 km/h (1 Bft) 100,00 %
21.06.2016 17:30 22,0 C 64 % 1022,0 hPa 0,0 l/m 2,7 km/h (1 Bft) W-NW 282 0 min 0,000 mm 1,6 UV-I 201 W/m 14,9 C 22,0 C 4,8 km/h (1 Bft) 100,00 %
21.06.2016 17:32 21,9 C 63 % 1022,0 hPa 0,0 l/m 0,3 km/h (0 Bft) W-NW 282 0 min 0,000 mm 1,5 UV-I 166 W/m 14,5 C 21,9 C 1,6 km/h (1 Bft) 100,00 %
21.06.2016 17:34 21,9 C 64 % 1022,0 hPa 0,0 l/m 1,5 km/h (1 Bft) W 266 0 min 0,000 mm 1,5 UV-I 205 W/m 14,8 C 21,9 C 3,2 km/h (1 Bft) 97,87 %
21.06.2016 17:36 21,9 C 66 % 1022,0 hPa 0,0 l/m 1,6 km/h (1 Bft) W 266 0 min 0,000 mm 1,4 UV-I 204 W/m 15,3 C 21,9 C 3,2 km/h (1 Bft) 100,00 %
21.06.2016 17:38 21,9 C 69 % 1022,0 hPa 0,0 l/m 1,9 km/h (1 Bft) NW 319 0 min 0,000 mm 1,5 UV-I 240 W/m 15,9 C 21,9 C 4,8 km/h (1 Bft) 100,00 %
21.06.2016 17:40 21,9 C 69 % 1022,0 hPa 0,0 l/m 3,0 km/h (1 Bft) NO 36 0 min 0,000 mm 1,5 UV-I 258 W/m 15,9 C 21,9 C 6,4 km/h (2 Bft) 97,87 %
21.06.2016 17:42 21,9 C 70 % 1021,9 hPa 0,0 l/m 1,8 km/h (1 Bft) N-NW 347 0 min 0,000 mm 1,5 UV-I 259 W/m 16,2 C 21,9 C 4,8 km/h (1 Bft) 100,00 %
21.06.2016 17:44 21,8 C 70 % 1021,9 hPa 0,0 l/m 1,1 km/h (1 Bft) N 355 2 min 0,000 mm 1,5 UV-I 318 W/m 16,1 C 21,8 C 3,2 km/h (1 Bft) 100,00 %
21.06.2016 17:46 21,8 C 69 % 1021,9 hPa 0,0 l/m 1,4 km/h (1 Bft) N 355 0 min 0,000 mm 1,4 UV-I 263 W/m 15,9 C 21,8 C 3,2 km/h (1 Bft) 100,00 %
21.06.2016 17:48 21,7 C 67 % 1021,9 hPa 0,0 l/m 1,1 km/h (1 Bft) N-NW 340 0 min 0,000 mm 1,3 UV-I 190 W/m 15,3 C 21,7 C 1,6 km/h (1 Bft) 100,00 %
21.06.2016 17:50 21,7 C 65 % 1021,9 hPa 0,0 l/m 1,6 km/h (1 Bft) N 350 0 min 0,000 mm 1,3 UV-I 191 W/m 14,8 C 21,7 C 3,2 km/h (1 Bft) 97,87 %
21.06.2016 17:52 21,7 C 66 % 1021,9 hPa 0,0 l/m 1,0 km/h (0 Bft) N 350 0 min 0,000 mm 1,2 UV-I 186 W/m 15,1 C 21,7 C 3,2 km/h (1 Bft) 97,37 %
21.06.2016 17:54 21,7 C 70 % 1021,8 hPa 0,0 l/m 2,3 km/h (1 Bft) N 350 0 min 0,000 mm 1,2 UV-I 192 W/m 16,0 C 21,7 C 3,2 km/h (1 Bft) 100,00 %
21.06.2016 17:56 21,7 C 65 % 1021,8 hPa 0,0 l/m 0,6 km/h (0 Bft) N 350 0 min 0,000 mm 1,2 UV-I 202 W/m 14,8 C 21,7 C 3,2 km/h (1 Bft) 100,00 %
21.06.2016 17:58 21,8 C 66 % 1021,8 hPa 0,0 l/m 0,4 km/h (0 Bft) N 351 0 min 0,000 mm 1,1 UV-I 199 W/m 15,2 C 21,8 C 3,2 km/h (1 Bft) 97,87 %
21.06.2016 18:00 21,7 C 70 % 1021,9 hPa 0,0 l/m 0,6 km/h (0 Bft) N 355 0 min 0,000 mm 1,1 UV-I 178 W/m 16,0 C 21,7 C 3,2 km/h (1 Bft) 98,04 %
21.06.2016 18:02 21,6 C 66 % 1021,8 hPa 0,0 l/m 0,0 km/h (0 Bft) N 355 0 min 0,177 mm 1,0 UV-I 199 W/m 15,0 C 21,6 C 1,6 km/h (1 Bft) 97,87 %
21.06.2016 18:04 21,6 C 66 % 1021,8 hPa 0,0 l/m 1,0 km/h (0 Bft) N 355 2 min 0,000 mm 1,1 UV-I 254 W/m 15,0 C 21,6 C 1,6 km/h (1 Bft) 100,00 %
21.06.2016 18:06 21,8 C 68 % 1021,8 hPa 0,0 l/m 0,9 km/h (0 Bft) N 355 2 min 0,000 mm 1,1 UV-I 247 W/m 15,6 C 21,8 C 3,2 km/h (1 Bft) 100,00 %
21.06.2016 18:08 21,8 C 67 % 1021,7 hPa 0,0 l/m 0,9 km/h (0 Bft) N 355 0 min 0,000 mm 1,1 UV-I 231 W/m 15,4 C 21,8 C 1,6 km/h (1 Bft) 94,74 %
21.06.2016 18:10 21,9 C 66 % 1021,7 hPa 0,0 l/m 2,6 km/h (1 Bft) N-NO 32 0 min 0,000 mm 1,0 UV-I 207 W/m 15,3 C 21,9 C 6,4 km/h (2 Bft) 97,87 %
21.06.2016 18:12 21,9 C 67 % 1021,7 hPa 0,0 l/m 4,8 km/h (1 Bft) N-NO 15 0 min 0,000 mm 0,9 UV-I 195 W/m 15,5 C 21,9 C 6,4 km/h (2 Bft) 100,00 %
21.06.2016 18:14 21,8 C 67 % 1021,7 hPa 0,0 l/m 3,3 km/h (1 Bft) N-NO 17 0 min 0,000 mm 0,8 UV-I 184 W/m 15,4 C 21,8 C 4,8 km/h (1 Bft) 100,00 %
21.06.2016 18:16 21,8 C 70 % 1021,7 hPa 0,0 l/m 1,2 km/h (1 Bft) N 355 0 min 0,000 mm 0,8 UV-I 178 W/m 16,1 C 21,8 C 3,2 km/h (1 Bft) 97,87 %
21.06.2016 18:18 21,7 C 68 % 1021,7 hPa 0,0 l/m 1,6 km/h (1 Bft) W-NW 300 0 min 0,000 mm 0,7 UV-I 163 W/m 15,5 C 21,7 C 4,8 km/h (1 Bft) 100,00 %
21.06.2016 18:20 21,7 C 70 % 1021,7 hPa 0,0 l/m 0,1 km/h (0 Bft) W-NW 300 0 min 0,000 mm 0,7 UV-I 168 W/m 16,0 C 21,7 C 1,6 km/h (1 Bft) 100,00 %
21.06.2016 18:22 21,7 C 69 % 1021,7 hPa 0,0 l/m 0,3 km/h (0 Bft) W-NW 300 0 min 0,000 mm 0,6 UV-I 189 W/m 15,8 C 21,7 C 1,6 km/h (1 Bft) 100,00 %
21.06.2016 18:24 21,7 C 68 % 1021,7 hPa 0,0 l/m 0,4 km/h (0 Bft) W-NW 300 0 min 0,000 mm 0,6 UV-I 199 W/m 15,5 C 21,7 C 1,6 km/h (1 Bft) 100,00 %
21.06.2016 18:26 21,8 C 64 % 1021,7 hPa 0,0 l/m 0,3 km/h (0 Bft) W-NW 300 0 min 0,000 mm 0,6 UV-I 198 W/m 14,7 C 21,8 C 1,6 km/h (1 Bft) 100,00 %
21.06.2016 18:28 21,8 C 68 % 1021,7 hPa 0,0 l/m 1,1 km/h (1 Bft) W-NW 300 0 min 0,000 mm 0,6 UV-I 203 W/m 15,6 C 21,8 C 3,2 km/h (1 Bft) 97,87 %
21.06.2016 18:30 21,8 C 68 % 1021,7 hPa 0,0 l/m 0,8 km/h (0 Bft) W-NW 300 0 min 0,000 mm 0,6 UV-I 186 W/m 15,6 C 21,8 C 3,2 km/h (1 Bft) 100,00 %
21.06.2016 18:32 21,9 C 65 % 1021,7 hPa 0,0 l/m 1,2 km/h (1 Bft) W-NW 300 0 min 0,000 mm 0,6 UV-I 198 W/m 15,0 C 21,9 C 1,6 km/h (1 Bft) 97,87 %
21.06.2016 18:34 21,9 C 68 % 1021,7 hPa 0,0 l/m 0,8 km/h (0 Bft) W-NW 300 0 min 0,000 mm 0,6 UV-I 180 W/m 15,7 C 21,9 C 1,6 km/h (1 Bft) 100,00 %
21.06.2016 18:36 21,8 C 68 % 1021,7 hPa 0,0 l/m 0,2 km/h (0 Bft) W-NW 300 0 min 0,000 mm 0,6 UV-I 162 W/m 15,6 C 21,8 C 1,6 km/h (1 Bft) 100,00 %
21.06.2016 18:38 21,8 C 68 % 1021,7 hPa 0,0 l/m 0,6 km/h (0 Bft) W-NW 300 0 min 0,000 mm 0,6 UV-I 175 W/m 15,6 C 21,8 C 3,2 km/h (1 Bft) 100,00 %
21.06.2016 18:40 21,8 C 65 % 1021,7 hPa 0,0 l/m 0,3 km/h (0 Bft) W-NW 300 0 min 0,000 mm 0,6 UV-I 170 W/m 14,9 C 21,8 C 1,6 km/h (1 Bft) 100,00 %
21.06.2016 18:42 21,8 C 66 % 1021,7 hPa 0,0 l/m 0,9 km/h (0 Bft) W-NW 300 0 min 0,000 mm 0,6 UV-I 169 W/m 15,2 C 21,8 C 1,6 km/h (1 Bft) 98,00 %
21.06.2016 18:44 21,7 C 68 % 1021,7 hPa 0,0 l/m 1,2 km/h (1 Bft) W-NW 300 0 min 0,000 mm 0,5 UV-I 177 W/m 15,5 C 21,7 C 3,2 km/h (1 Bft) 100,00 %
21.06.2016 18:46 21,7 C 68 % 1021,7 hPa 0,0 l/m 1,1 km/h (1 Bft) W-NW 300 0 min 0,000 mm 0,5 UV-I 145 W/m 15,5 C 21,7 C 3,2 km/h (1 Bft) 97,92 %
21.06.2016 18:48 21,7 C 69 % 1021,7 hPa 0,0 l/m 0,5 km/h (0 Bft) W-NW 300 0 min 0,000 mm 0,5 UV-I 145 W/m 15,8 C 21,7 C 3,2 km/h (1 Bft) 95,74 %
21.06.2016 18:50 21,7 C 66 % 1021,7 hPa 0,0 l/m 0,6 km/h (0 Bft) W-NW 300 0 min 0,000 mm 0,5 UV-I 129 W/m 15,1 C 21,7 C 1,6 km/h (1 Bft) 93,62 %
21.06.2016 18:52 21,7 C 67 % 1021,7 hPa 0,0 l/m 0,1 km/h (0 Bft) W-NW 300 0 min 0,000 mm 0,2 UV-I 120 W/m 15,3 C 21,7 C 1,6 km/h (1 Bft) 100,00 %
21.06.2016 18:54 21,7 C 69 % 1021,7 hPa 0,0 l/m 2,2 km/h (1 Bft) N-NW 327 0 min 0,000 mm 0,0 UV-I 110 W/m 15,8 C 21,7 C 4,8 km/h (1 Bft) 93,88 %
21.06.2016 18:56 21,6 C 69 % 1021,7 hPa 0,0 l/m 2,7 km/h (1 Bft) N-NW 329 0 min 0,000 mm 0,0 UV-I 160 W/m 15,7 C 21,6 C 4,8 km/h (1 Bft) 95,74 %
21.06.2016 18:58 21,6 C 69 % 1021,7 hPa 0,0 l/m 0,3 km/h (0 Bft) N-NW 329 0 min 0,000 mm 0,0 UV-I 157 W/m 15,7 C 21,6 C 1,6 km/h (1 Bft) 95,74 %
21.06.2016 19:00 21,6 C 71 % 1021,7 hPa 0,0 l/m 0,8 km/h (0 Bft) N-NW 329 0 min 0,000 mm 0,0 UV-I 155 W/m 16,1 C 21,6 C 3,2 km/h (1 Bft) 97,87 %
21.06.2016 19:02 21,6 C 70 % 1021,7 hPa 0,0 l/m 2,9 km/h (1 Bft) N-NO 21 0 min 0,127 mm 0,0 UV-I 162 W/m 15,9 C 21,6 C 4,8 km/h (1 Bft) 96,00 %
21.06.2016 19:04 21,7 C 65 % 1021,7 hPa 0,0 l/m 1,9 km/h (1 Bft) N-NO 21 0 min 0,000 mm 0,0 UV-I 159 W/m 14,8 C 21,7 C 3,2 km/h (1 Bft) 98,00 %
21.06.2016 19:06 21,8 C 66 % 1021,7 hPa 0,0 l/m 1,6 km/h (1 Bft) N-NO 21 2 min 0,000 mm 0,0 UV-I 213 W/m 15,2 C 21,8 C 3,2 km/h (1 Bft) 94,74 %
21.06.2016 19:08 21,9 C 68 % 1021,7 hPa 0,0 l/m 2,0 km/h (1 Bft) N-NO 21 2 min 0,000 mm 0,0 UV-I 289 W/m 15,7 C 21,9 C 3,2 km/h (1 Bft) 95,74 %
21.06.2016 19:10 22,1 C 63 % 1021,7 hPa 0,0 l/m 1,6 km/h (1 Bft) N-NO 21 2 min 0,000 mm 0,0 UV-I 289 W/m 14,7 C 22,1 C 1,6 km/h (1 Bft) 95,74 %
21.06.2016 19:12 22,1 C 63 % 1021,7 hPa 0,0 l/m 1,5 km/h (1 Bft) N-NO 21 2 min 0,000 mm 0,0 UV-I 288 W/m 14,7 C 22,1 C 3,2 km/h (1 Bft) 96,00 %
21.06.2016 19:14 22,1 C 65 % 1021,7 hPa 0,0 l/m 1,8 km/h (1 Bft) O-NO 72 2 min 0,000 mm 0,0 UV-I 282 W/m 15,2 C 22,1 C 3,2 km/h (1 Bft) 95,74 %
21.06.2016 19:16 22,3 C 64 % 1021,7 hPa 0,0 l/m 3,5 km/h (1 Bft) O 81 2 min 0,000 mm 0,0 UV-I 293 W/m 15,2 C 22,3 C 4,8 km/h (1 Bft) 97,87 %
21.06.2016 19:18 22,3 C 62 % 1021,7 hPa 0,0 l/m 1,1 km/h (1 Bft) O 81 2 min 0,000 mm 0,0 UV-I 288 W/m 14,7 C 22,3 C 3,2 km/h (1 Bft) 97,87 %
21.06.2016 19:20 22,3 C 64 % 1021,7 hPa 0,0 l/m 0,5 km/h (0 Bft) O 81 2 min 0,000 mm 0,0 UV-I 268 W/m 15,2 C 22,3 C 1,6 km/h (1 Bft) 95,83 %
21.06.2016 19:22 22,3 C 64 % 1021,7 hPa 0,0 l/m 0,1 km/h (0 Bft) O 81 2 min 0,000 mm 0,0 UV-I 256 W/m 15,2 C 22,3 C 1,6 km/h (1 Bft) 98,00 %
21.06.2016 19:24 22,5 C 64 % 1021,7 hPa 0,0 l/m 0,2 km/h (0 Bft) O 81 2 min 0,000 mm 0,0 UV-I 251 W/m 15,3 C 22,5 C 1,6 km/h (1 Bft) 97,87 %
21.06.2016 19:26 22,4 C 61 % 1021,7 hPa 0,0 l/m 1,2 km/h (1 Bft) O 81 2 min 0,000 mm 0,0 UV-I 246 W/m 14,5 C 22,4 C 3,2 km/h (1 Bft) 95,74 %
21.06.2016 19:28 22,4 C 65 % 1021,7 hPa 0,0 l/m 2,1 km/h (1 Bft) O-NO 64 2 min 0,000 mm 0,0 UV-I 240 W/m 15,5 C 22,4 C 4,8 km/h (1 Bft) 100,00 %
21.06.2016 19:30 22,4 C 64 % 1021,7 hPa 0,0 l/m 4,3 km/h (1 Bft) NO 53 2 min 0,000 mm 0,0 UV-I 245 W/m 15,2 C 22,4 C 6,4 km/h (2 Bft) 95,74 %
21.06.2016 19:32 22,4 C 65 % 1021,7 hPa 0,0 l/m 3,1 km/h (1 Bft) NO 53 2 min 0,000 mm 0,0 UV-I 221 W/m 15,5 C 22,4 C 4,8 km/h (1 Bft) 100,00 %
21.06.2016 19:34 22,3 C 63 % 1021,7 hPa 0,0 l/m 3,2 km/h (1 Bft) NO 53 2 min 0,000 mm 0,0 UV-I 158 W/m 14,9 C 22,3 C 4,8 km/h (1 Bft) 100,00 %
21.06.2016 19:36 22,3 C 64 % 1021,7 hPa 0,0 l/m 2,6 km/h (1 Bft) NO 53 2 min 0,000 mm 0,0 UV-I 132 W/m 15,2 C 22,3 C 4,8 km/h (1 Bft) 100,00 %
21.06.2016 19:38 22,2 C 65 % 1021,7 hPa 0,0 l/m 2,4 km/h (1 Bft) NO 53 0 min 0,000 mm 0,0 UV-I 83 W/m 15,3 C 22,2 C 3,2 km/h (1 Bft) 100,00 %
21.06.2016 19:40 22,1 C 63 % 1021,7 hPa 0,0 l/m 1,9 km/h (1 Bft) NO 53 0 min 0,000 mm 0,0 UV-I 71 W/m 14,7 C 22,1 C 3,2 km/h (1 Bft) 97,87 %
21.06.2016 19:42 21,9 C 66 % 1021,7 hPa 0,0 l/m 2,2 km/h (1 Bft) NO 53 0 min 0,000 mm 0,0 UV-I 56 W/m 15,3 C 21,9 C 4,8 km/h (1 Bft) 100,00 %
21.06.2016 19:44 21,8 C 64 % 1021,7 hPa 0,0 l/m 1,5 km/h (1 Bft) NO 53 0 min 0,000 mm 0,0 UV-I 48 W/m 14,7 C 21,8 C 3,2 km/h (1 Bft) 100,00 %
21.06.2016 19:46 21,8 C 65 % 1021,7 hPa 0,0 l/m 1,8 km/h (1 Bft) NO 53 0 min 0,000 mm 0,0 UV-I 46 W/m 14,9 C 21,8 C 3,2 km/h (1 Bft) 93,62 %
21.06.2016 19:48 21,7 C 67 % 1021,7 hPa 0,0 l/m 2,1 km/h (1 Bft) NO 53 0 min 0,000 mm 0,0 UV-I 42 W/m 15,3 C 21,7 C 3,2 km/h (1 Bft) 100,00 %
21.06.2016 19:50 21,5 C 69 % 1021,7 hPa 0,0 l/m 4,4 km/h (1 Bft) O 94 0 min 0,000 mm 0,0 UV-I 49 W/m 15,6 C 21,5 C 6,4 km/h (2 Bft) 100,00 %
21.06.2016 19:52 21,3 C 68 % 1021,7 hPa 0,0 l/m 4,4 km/h (1 Bft) O-NO 74 0 min 0,000 mm 0,0 UV-I 51 W/m 15,1 C 21,3 C 4,8 km/h (1 Bft) 100,00 %
21.06.2016 19:54 21,3 C 69 % 1021,7 hPa 0,0 l/m 3,4 km/h (1 Bft) O-NO 74 0 min 0,000 mm 0,0 UV-I 76 W/m 15,4 C 21,3 C 4,8 km/h (1 Bft) 100,00 %
21.06.2016 19:56 21,2 C 70 % 1021,7 hPa 0,0 l/m 2,1 km/h (1 Bft) O-NO 74 0 min 0,000 mm 0,0 UV-I 55 W/m 15,5 C 21,2 C 3,2 km/h (1 Bft) 97,87 %
21.06.2016 19:58 21,2 C 69 % 1021,7 hPa 0,0 l/m 1,1 km/h (1 Bft) O-NO 74 0 min 0,000 mm 0,0 UV-I 45 W/m 15,3 C 21,2 C 3,2 km/h (1 Bft) 100,00 %
21.06.2016 20:00 21,1 C 69 % 1021,7 hPa 0,0 l/m 3,4 km/h (1 Bft) O-SO 119 0 min 0,000 mm 0,0 UV-I 44 W/m 15,2 C 21,1 C 6,4 km/h (2 Bft) 100,00 %
21.06.2016 20:02 21,0 C 71 % 1021,7 hPa 0,0 l/m 5,1 km/h (1 Bft) O-SO 115 0 min 0,102 mm 0,0 UV-I 44 W/m 15,5 C 21,0 C 6,4 km/h (2 Bft) 100,00 %
21.06.2016 20:04 20,9 C 71 % 1021,7 hPa 0,0 l/m 4,3 km/h (1 Bft) O-SO 123 0 min 0,000 mm 0,0 UV-I 42 W/m 15,4 C 20,9 C 6,4 km/h (2 Bft) 100,00 %
21.06.2016 20:06 20,8 C 73 % 1021,7 hPa 0,0 l/m 4,5 km/h (1 Bft) SO 128 0 min 0,000 mm 0,0 UV-I 42 W/m 15,8 C 20,8 C 6,4 km/h (2 Bft) 100,00 %
21.06.2016 20:08 20,7 C 74 % 1021,7 hPa 0,0 l/m 4,5 km/h (1 Bft) SO 127 0 min 0,000 mm 0,0 UV-I 44 W/m 15,9 C 20,7 C 6,4 km/h (2 Bft) 100,00 %
21.06.2016 20:10 20,6 C 74 % 1021,7 hPa 0,0 l/m 3,6 km/h (1 Bft) SO 127 0 min 0,000 mm 0,0 UV-I 51 W/m 15,8 C 20,6 C 4,8 km/h (1 Bft) 100,00 %
21.06.2016 20:12 20,5 C 75 % 1021,7 hPa 0,0 l/m 3,6 km/h (1 Bft) O-SO 109 0 min 0,000 mm 0,0 UV-I 52 W/m 15,9 C 20,5 C 6,4 km/h (2 Bft) 100,00 %
21.06.2016 20:14 20,4 C 75 % 1021,7 hPa 0,0 l/m 4,7 km/h (1 Bft) O 98 0 min 0,000 mm 0,0 UV-I 44 W/m 15,8 C 20,4 C 6,4 km/h (2 Bft) 100,00 %
21.06.2016 20:16 20,3 C 74 % 1021,8 hPa 0,0 l/m 5,4 km/h (1 Bft) O-SO 109 0 min 0,000 mm 0,0 UV-I 40 W/m 15,5 C 20,3 C 9,7 km/h (2 Bft) 100,00 %
21.06.2016 20:18 20,3 C 74 % 1021,7 hPa 0,0 l/m 4,4 km/h (1 Bft) O-SO 121 0 min 0,000 mm 0,0 UV-I 38 W/m 15,5 C 20,3 C 6,4 km/h (2 Bft) 97,87 %
21.06.2016 20:20 20,3 C 75 % 1021,7 hPa 0,0 l/m 4,6 km/h (1 Bft) SO 126 0 min 0,000 mm 0,0 UV-I 35 W/m 15,7 C 20,3 C 6,4 km/h (2 Bft) 100,00 %
21.06.2016 20:22 20,3 C 75 % 1021,7 hPa 0,0 l/m 3,9 km/h (1 Bft) SO 126 0 min 0,000 mm 0,0 UV-I 34 W/m 15,7 C 20,3 C 6,4 km/h (2 Bft) 100,00 %
21.06.2016 20:24 20,3 C 75 % 1021,8 hPa 0,0 l/m 4,3 km/h (1 Bft) O-SO 123 0 min 0,000 mm 0,0 UV-I 31 W/m 15,7 C 20,3 C 6,4 km/h (2 Bft) 100,00 %
21.06.2016 20:26 20,2 C 75 % 1021,8 hPa 0,0 l/m 4,1 km/h (1 Bft) O-SO 123 0 min 0,000 mm 0,0 UV-I 28 W/m 15,6 C 20,2 C 6,4 km/h (2 Bft) 98,00 %
21.06.2016 20:28 20,2 C 75 % 1021,7 hPa 0,0 l/m 3,8 km/h (1 Bft) SO 125 0 min 0,000 mm 0,0 UV-I 26 W/m 15,6 C 20,2 C 4,8 km/h (1 Bft) 100,00 %
21.06.2016 20:30 20,3 C 75 % 1021,8 hPa 0,0 l/m 5,2 km/h (1 Bft) O-SO 116 0 min 0,000 mm 0,0 UV-I 25 W/m 15,7 C 20,3 C 6,4 km/h (2 Bft) 97,87 %
21.06.2016 20:32 20,3 C 76 % 1021,7 hPa 0,0 l/m 3,6 km/h (1 Bft) O-SO 116 0 min 0,000 mm 0,0 UV-I 23 W/m 15,9 C 20,3 C 4,8 km/h (1 Bft) 95,74 %
21.06.2016 20:34 20,2 C 75 % 1021,8 hPa 0,0 l/m 4,5 km/h (1 Bft) SO 130 0 min 0,000 mm 0,0 UV-I 23 W/m 15,6 C 20,2 C 8,0 km/h (2 Bft) 100,00 %
21.06.2016 20:36 20,2 C 76 % 1021,8 hPa 0,0 l/m 4,7 km/h (1 Bft) O-SO 119 0 min 0,000 mm 0,0 UV-I 22 W/m 15,8 C 20,2 C 6,4 km/h (2 Bft) 97,87 %
21.06.2016 20:38 20,2 C 76 % 1021,8 hPa 0,0 l/m 4,0 km/h (1 Bft) O-SO 120 0 min 0,000 mm 0,0 UV-I 21 W/m 15,8 C 20,2 C 6,4 km/h (2 Bft) 100,00 %
21.06.2016 20:40 20,2 C 76 % 1021,8 hPa 0,0 l/m 2,7 km/h (1 Bft) O-SO 121 0 min 0,000 mm 0,0 UV-I 21 W/m 15,8 C 20,2 C 4,8 km/h (1 Bft) 100,00 %
21.06.2016 20:42 20,1 C 76 % 1021,8 hPa 0,0 l/m 2,2 km/h (1 Bft) O-SO 121 0 min 0,000 mm 0,0 UV-I 21 W/m 15,7 C 20,1 C 3,2 km/h (1 Bft) 100,00 %
21.06.2016 20:44 20,1 C 77 % 1021,8 hPa 0,0 l/m 2,5 km/h (1 Bft) O-SO 121 0 min 0,000 mm 0,0 UV-I 21 W/m 15,9 C 20,1 C 4,8 km/h (1 Bft) 95,74 %
21.06.2016 20:46 20,1 C 77 % 1021,8 hPa 0,0 l/m 2,4 km/h (1 Bft) O-SO 121 2 min 0,000 mm 0,0 UV-I 20 W/m 15,9 C 20,1 C 4,8 km/h (1 Bft) 97,87 %
21.06.2016 20:48 20,0 C 77 % 1021,8 hPa 0,0 l/m 2,6 km/h (1 Bft) O-SO 121 2 min 0,000 mm 0,0 UV-I 18 W/m 15,8 C 20,0 C 4,8 km/h (1 Bft) 97,87 %
21.06.2016 20:50 19,9 C 79 % 1021,8 hPa 0,0 l/m 3,3 km/h (1 Bft) O-SO 121 2 min 0,000 mm 0,0 UV-I 16 W/m 16,1 C 19,9 C 4,8 km/h (1 Bft) 95,74 %
21.06.2016 20:52 19,8 C 78 % 1021,7 hPa 0,0 l/m 4,1 km/h (1 Bft) O-SO 121 2 min 0,000 mm 0,0 UV-I 12 W/m 15,8 C 19,8 C 6,4 km/h (2 Bft) 95,74 %
21.06.2016 20:54 19,7 C 78 % 1021,7 hPa 0,0 l/m 4,9 km/h (1 Bft) O-SO 113 2 min 0,000 mm 0,0 UV-I 11 W/m 15,8 C 19,7 C 6,4 km/h (2 Bft) 97,87 %
21.06.2016 20:56 19,7 C 78 % 1021,7 hPa 0,0 l/m 4,0 km/h (1 Bft) O-SO 111 0 min 0,000 mm 0,0 UV-I 11 W/m 15,8 C 19,7 C 6,4 km/h (2 Bft) 95,74 %
21.06.2016 20:58 19,5 C 79 % 1021,7 hPa 0,0 l/m 4,3 km/h (1 Bft) O-SO 103 0 min 0,000 mm 0,0 UV-I 10 W/m 15,8 C 19,5 C 6,4 km/h (2 Bft) 98,00 %
21.06.2016 21:00 19,4 C 79 % 1021,8 hPa 0,0 l/m 4,2 km/h (1 Bft) O-SO 103 0 min 0,000 mm 0,0 UV-I 8 W/m 15,7 C 19,4 C 6,4 km/h (2 Bft) 98,00 %
21.06.2016 21:02 19,3 C 79 % 1021,8 hPa 0,0 l/m 4,5 km/h (1 Bft) O-SO 115 0 min 0,025 mm 0,0 UV-I 6 W/m 15,6 C 19,3 C 6,4 km/h (2 Bft) 97,92 %
21.06.2016 21:04 19,3 C 79 % 1021,8 hPa 0,0 l/m 4,2 km/h (1 Bft) O-SO 115 0 min 0,000 mm 0,0 UV-I 5 W/m 15,6 C 19,3 C 4,8 km/h (1 Bft) 97,87 %
21.06.2016 21:06 19,3 C 79 % 1021,8 hPa 0,0 l/m 3,8 km/h (1 Bft) O-SO 119 0 min 0,000 mm 0,0 UV-I 5 W/m 15,6 C 19,3 C 6,4 km/h (2 Bft) 97,87 %
21.06.2016 21:08 19,3 C 80 % 1021,8 hPa 0,0 l/m 3,8 km/h (1 Bft) O-SO 120 0 min 0,000 mm 0,0 UV-I 3 W/m 15,8 C 19,3 C 4,8 km/h (1 Bft) 97,87 %
21.06.2016 21:10 19,2 C 80 % 1021,8 hPa 0,0 l/m 3,6 km/h (1 Bft) O-SO 121 0 min 0,000 mm 0,0 UV-I 0 W/m 15,7 C 19,2 C 6,4 km/h (2 Bft) 95,74 %
21.06.2016 21:12 19,2 C 80 % 1021,9 hPa 0,0 l/m 2,9 km/h (1 Bft) O-SO 121 0 min 0,000 mm 0,0 UV-I 0 W/m 15,7 C 19,2 C 4,8 km/h (1 Bft) 91,67 %
21.06.2016 21:14 19,1 C 80 % 1021,9 hPa 0,0 l/m 1,9 km/h (1 Bft) O-SO 121 0 min 0,000 mm 0,0 UV-I 0 W/m 15,6 C 19,1 C 3,2 km/h (1 Bft) 95,74 %
21.06.2016 21:16 19,1 C 80 % 1021,9 hPa 0,0 l/m 0,9 km/h (0 Bft) O-SO 121 0 min 0,000 mm 0,0 UV-I 0 W/m 15,6 C 19,1 C 1,6 km/h (1 Bft) 95,74 %
21.06.2016 21:18 19,1 C 81 % 1022,0 hPa 0,0 l/m 0,5 km/h (0 Bft) O-SO 121 0 min 0,000 mm 0,0 UV-I 0 W/m 15,8 C 19,1 C 1,6 km/h (1 Bft) 97,22 %
21.06.2016 21:20 18,9 C 81 % 1021,9 hPa 0,0 l/m 0,0 km/h (0 Bft) O-SO 121 0 min 0,000 mm 0,0 UV-I 0 W/m 15,6 C 18,9 C 0,0 km/h (0 Bft) 95,74 %
21.06.2016 21:22 18,9 C 80 % 1022,0 hPa 0,0 l/m 2,4 km/h (1 Bft) O-SO 108 0 min 0,000 mm 0,0 UV-I 0 W/m 15,4 C 18,9 C 4,8 km/h (1 Bft) 97,92 %
21.06.2016 21:24 18,7 C 81 % 1022,0 hPa 0,0 l/m 4,6 km/h (1 Bft) O-NO 59 0 min 0,000 mm 0,0 UV-I 0 W/m 15,4 C 18,7 C 6,4 km/h (2 Bft) 98,00 %
21.06.2016 21:26 18,6 C 82 % 1022,0 hPa 0,0 l/m 4,3 km/h (1 Bft) NO 50 0 min 0,000 mm 0,0 UV-I 0 W/m 15,5 C 18,6 C 6,4 km/h (2 Bft) 97,87 %
21.06.2016 21:28 18,5 C 82 % 1022,0 hPa 0,0 l/m 4,1 km/h (1 Bft) NO 46 0 min 0,000 mm 0,0 UV-I 0 W/m 15,4 C 18,5 C 6,4 km/h (2 Bft) 98,00 %
21.06.2016 21:30 18,4 C 83 % 1022,1 hPa 0,0 l/m 5,0 km/h (1 Bft) NO 42 0 min 0,000 mm 0,0 UV-I 0 W/m 15,5 C 18,4 C 6,4 km/h (2 Bft) 97,87 %
21.06.2016 21:32 18,4 C 83 % 1022,1 hPa 0,0 l/m 4,1 km/h (1 Bft) NO 42 0 min 0,000 mm 0,0 UV-I 0 W/m 15,5 C 18,4 C 6,4 km/h (2 Bft) 96,00 %
21.06.2016 21:34 18,4 C 83 % 1022,1 hPa 0,0 l/m 1,8 km/h (1 Bft) NO 42 0 min 0,000 mm 0,0 UV-I 0 W/m 15,5 C 18,4 C 3,2 km/h (1 Bft) 100,00 %
21.06.2016 21:36 18,4 C 83 % 1022,1 hPa 0,0 l/m 1,9 km/h (1 Bft) NO 42 0 min 0,000 mm 0,0 UV-I 0 W/m 15,5 C 18,4 C 3,2 km/h (1 Bft) 100,00 %
21.06.2016 21:38 18,4 C 83 % 1022,1 hPa 0,0 l/m 3,4 km/h (1 Bft) NO 42 0 min 0,000 mm 0,0 UV-I 0 W/m 15,5 C 18,4 C 4,8 km/h (1 Bft) 97,87 %
21.06.2016 21:40 18,4 C 83 % 1022,1 hPa 0,0 l/m 3,9 km/h (1 Bft) NO 42 0 min 0,000 mm 0,0 UV-I 0 W/m 15,5 C 18,4 C 4,8 km/h (1 Bft) 100,00 %
21.06.2016 21:42 18,4 C 83 % 1022,2 hPa 0,0 l/m 3,8 km/h (1 Bft) NO 42 0 min 0,000 mm 0,0 UV-I 0 W/m 15,5 C 18,4 C 4,8 km/h (1 Bft) 100,00 %
21.06.2016 21:44 18,4 C 83 % 1022,2 hPa 0,0 l/m 4,6 km/h (1 Bft) NO 42 0 min 0,000 mm 0,0 UV-I 0 W/m 15,5 C 18,4 C 4,8 km/h (1 Bft) 97,87 %
21.06.2016 21:46 18,3 C 83 % 1022,2 hPa 0,0 l/m 4,0 km/h (1 Bft) NO 42 0 min 0,000 mm 0,0 UV-I 0 W/m 15,4 C 18,3 C 4,8 km/h (1 Bft) 100,00 %
21.06.2016 21:48 18,3 C 83 % 1022,2 hPa 0,0 l/m 4,3 km/h (1 Bft) NO 42 0 min 0,000 mm 0,0 UV-I 0 W/m 15,4 C 18,3 C 6,4 km/h (2 Bft) 100,00 %
21.06.2016 21:50 18,3 C 83 % 1022,1 hPa 0,0 l/m 4,0 km/h (1 Bft) NO 42 0 min 0,000 mm 0,0 UV-I 0 W/m 15,4 C 18,3 C 6,4 km/h (2 Bft) 100,00 %
21.06.2016 21:52 18,3 C 83 % 1022,2 hPa 0,0 l/m 3,6 km/h (1 Bft) NO 42 0 min 0,000 mm 0,0 UV-I 0 W/m 15,4 C 18,3 C 4,8 km/h (1 Bft) 100,00 %
21.06.2016 21:54 18,3 C 83 % 1022,2 hPa 0,0 l/m 3,9 km/h (1 Bft) NO 42 0 min 0,000 mm 0,0 UV-I 0 W/m 15,4 C 18,3 C 4,8 km/h (1 Bft) 100,00 %
21.06.2016 21:56 18,3 C 83 % 1022,2 hPa 0,0 l/m 3,9 km/h (1 Bft) NO 42 0 min 0,000 mm 0,0 UV-I 0 W/m 15,4 C 18,3 C 4,8 km/h (1 Bft) 100,00 %
21.06.2016 21:58 18,3 C 83 % 1022,2 hPa 0,0 l/m 2,7 km/h (1 Bft) NO 42 0 min 0,000 mm 0,0 UV-I 0 W/m 15,4 C 18,3 C 4,8 km/h (1 Bft) 100,00 %
21.06.2016 22:00 18,3 C 83 % 1022,3 hPa 0,0 l/m 2,0 km/h (1 Bft) NO 42 0 min 0,000 mm 0,0 UV-I 0 W/m 15,4 C 18,3 C 3,2 km/h (1 Bft) 100,00 %
21.06.2016 22:02 18,3 C 83 % 1022,3 hPa 0,0 l/m 0,8 km/h (0 Bft) NO 42 0 min 0,025 mm 0,0 UV-I 0 W/m 15,4 C 18,3 C 3,2 km/h (1 Bft) 100,00 %
21.06.2016 22:04 18,2 C 83 % 1022,3 hPa 0,0 l/m 0,2 km/h (0 Bft) NO 42 0 min 0,001 mm 0,0 UV-I 0 W/m 15,3 C 18,2 C 1,6 km/h (1 Bft) 100,00 %
21.06.2016 22:06 18,1 C 84 % 1022,4 hPa 0,0 l/m 0,0 km/h (0 Bft) NO 42 0 min 0,000 mm 0,0 UV-I 0 W/m 15,4 C 18,1 C 1,6 km/h (1 Bft) 100,00 %
21.06.2016 22:08 17,9 C 84 % 1022,4 hPa 0,0 l/m 0,4 km/h (0 Bft) NO 42 0 min 0,000 mm 0,0 UV-I 0 W/m 15,2 C 17,9 C 1,6 km/h (1 Bft) 97,87 %
21.06.2016 22:10 17,8 C 85 % 1022,3 hPa 0,0 l/m 1,4 km/h (1 Bft) NO 42 0 min 0,000 mm 0,0 UV-I 0 W/m 15,2 C 17,8 C 3,2 km/h (1 Bft) 100,00 %
21.06.2016 22:12 17,7 C 85 % 1022,2 hPa 0,0 l/m 1,5 km/h (1 Bft) NO 42 0 min 0,000 mm 0,0 UV-I 0 W/m 15,1 C 17,7 C 3,2 km/h (1 Bft) 100,00 %
21.06.2016 22:14 17,7 C 86 % 1022,3 hPa 0,0 l/m 1,5 km/h (1 Bft) NO 42 0 min 0,000 mm 0,0 UV-I 0 W/m 15,3 C 17,7 C 3,2 km/h (1 Bft) 100,00 %
21.06.2016 22:16 17,6 C 86 % 1022,3 hPa 0,0 l/m 1,2 km/h (1 Bft) NO 42 0 min 0,000 mm 0,0 UV-I 0 W/m 15,2 C 17,6 C 3,2 km/h (1 Bft) 100,00 %
21.06.2016 22:18 17,5 C 86 % 1022,3 hPa 0,0 l/m 1,4 km/h (1 Bft) NO 42 0 min 0,000 mm 0,0 UV-I 0 W/m 15,1 C 17,5 C 3,2 km/h (1 Bft) 100,00 %
21.06.2016 22:20 17,3 C 87 % 1022,3 hPa 0,0 l/m 2,0 km/h (1 Bft) NO 42 0 min 0,000 mm 0,0 UV-I 0 W/m 15,1 C 17,3 C 3,2 km/h (1 Bft) 100,00 %
21.06.2016 22:22 17,3 C 88 % 1022,3 hPa 0,0 l/m 2,4 km/h (1 Bft) NO 42 0 min 0,000 mm 0,0 UV-I 0 W/m 15,3 C 17,3 C 3,2 km/h (1 Bft) 100,00 %
21.06.2016 22:24 17,2 C 88 % 1022,3 hPa 0,0 l/m 1,2 km/h (1 Bft) NO 42 0 min 0,000 mm 0,0 UV-I 0 W/m 15,2 C 17,2 C 1,6 km/h (1 Bft) 100,00 %
21.06.2016 22:26 17,0 C 88 % 1022,3 hPa 0,0 l/m 2,2 km/h (1 Bft) NO 42 0 min 0,000 mm 0,0 UV-I 0 W/m 15,0 C 17,0 C 3,2 km/h (1 Bft) 100,00 %
21.06.2016 22:28 16,9 C 87 % 1022,3 hPa 0,0 l/m 3,0 km/h (1 Bft) NO 42 0 min 0,000 mm 0,0 UV-I 0 W/m 14,7 C 16,9 C 4,8 km/h (1 Bft) 100,00 %
21.06.2016 22:30 16,8 C 88 % 1022,2 hPa 0,0 l/m 3,5 km/h (1 Bft) NO 46 0 min 0,000 mm 0,0 UV-I 0 W/m 14,8 C 16,8 C 4,8 km/h (1 Bft) 97,44 %
21.06.2016 22:32 16,7 C 88 % 1022,3 hPa 0,0 l/m 3,2 km/h (1 Bft) O 83 0 min 0,000 mm 0,0 UV-I 0 W/m 14,7 C 16,7 C 6,4 km/h (2 Bft) 97,87 %
21.06.2016 22:34 16,7 C 89 % 1022,3 hPa 0,0 l/m 3,2 km/h (1 Bft) O 81 0 min 0,000 mm 0,0 UV-I 0 W/m 14,9 C 16,7 C 4,8 km/h (1 Bft) 100,00 %
21.06.2016 22:36 16,8 C 89 % 1022,3 hPa 0,0 l/m 3,1 km/h (1 Bft) O 81 0 min 0,000 mm 0,0 UV-I 0 W/m 15,0 C 16,8 C 4,8 km/h (1 Bft) 100,00 %
21.06.2016 22:38 16,9 C 89 % 1022,3 hPa 0,0 l/m 2,3 km/h (1 Bft) O 81 0 min 0,000 mm 0,0 UV-I 0 W/m 15,1 C 16,9 C 3,2 km/h (1 Bft) 100,00 %
21.06.2016 22:40 17,0 C 88 % 1022,3 hPa 0,0 l/m 2,1 km/h (1 Bft) O 81 0 min 0,000 mm 0,0 UV-I 0 W/m 15,0 C 17,0 C 3,2 km/h (1 Bft) 95,74 %
21.06.2016 22:42 16,9 C 88 % 1022,3 hPa 0,0 l/m 1,1 km/h (1 Bft) O 81 0 min 0,000 mm 0,0 UV-I 0 W/m 14,9 C 16,9 C 3,2 km/h (1 Bft) 100,00 %
21.06.2016 22:44 16,9 C 88 % 1022,3 hPa 0,0 l/m 1,2 km/h (1 Bft) O 81 0 min 0,000 mm 0,0 UV-I 0 W/m 14,9 C 16,9 C 3,2 km/h (1 Bft) 97,87 %
21.06.2016 22:46 16,8 C 88 % 1022,3 hPa 0,0 l/m 1,8 km/h (1 Bft) O 81 0 min 0,000 mm 0,0 UV-I 0 W/m 14,8 C 16,8 C 3,2 km/h (1 Bft) 97,87 %
21.06.2016 22:48 16,7 C 89 % 1022,3 hPa 0,0 l/m 0,8 km/h (0 Bft) O 81 0 min 0,000 mm 0,0 UV-I 0 W/m 14,9 C 16,7 C 1,6 km/h (1 Bft) 98,00 %
21.06.2016 22:50 16,6 C 89 % 1022,3 hPa 0,0 l/m 0,4 km/h (0 Bft) O 81 0 min 0,000 mm 0,0 UV-I 0 W/m 14,8 C 16,6 C 1,6 km/h (1 Bft) 95,74 %
21.06.2016 22:52 16,5 C 90 % 1022,4 hPa 0,0 l/m 1,6 km/h (1 Bft) O 81 0 min 0,000 mm 0,0 UV-I 0 W/m 14,9 C 16,5 C 3,2 km/h (1 Bft) 95,74 %
21.06.2016 22:54 16,5 C 90 % 1022,3 hPa 0,0 l/m 0,0 km/h (0 Bft) O 81 0 min 0,000 mm 0,0 UV-I 0 W/m 14,9 C 16,5 C 1,6 km/h (1 Bft) 95,74 %
21.06.2016 22:56 16,4 C 90 % 1022,4 hPa 0,0 l/m 0,0 km/h (0 Bft) O 81 0 min 0,000 mm 0,0 UV-I 0 W/m 14,8 C 16,4 C 1,6 km/h (1 Bft) 95,74 %
21.06.2016 22:58 16,4 C 90 % 1022,4 hPa 0,0 l/m 0,0 km/h (0 Bft) O 81 0 min 0,000 mm 0,0 UV-I 0 W/m 14,8 C 16,4 C 0,0 km/h (0 Bft) 95,74 %
21.06.2016 23:00 16,4 C 90 % 1022,4 hPa 0,0 l/m 0,0 km/h (0 Bft) O 81 0 min 0,000 mm 0,0 UV-I 0 W/m 14,8 C 16,4 C 0,0 km/h (0 Bft) 97,87 %
21.06.2016 23:02 16,3 C 91 % 1022,3 hPa 0,0 l/m 0,0 km/h (0 Bft) O 81 0 min 0,000 mm 0,0 UV-I 0 W/m 14,8 C 16,3 C 0,0 km/h (0 Bft) 95,74 %
21.06.2016 23:04 16,3 C 90 % 1022,3 hPa 0,0 l/m 0,0 km/h (0 Bft) O 81 0 min 0,000 mm 0,0 UV-I 0 W/m 14,7 C 16,3 C 0,0 km/h (0 Bft) 97,87 %
21.06.2016 23:06 16,2 C 90 % 1022,4 hPa 0,0 l/m 0,0 km/h (0 Bft) O 81 0 min 0,000 mm 0,0 UV-I 0 W/m 14,6 C 16,2 C 0,0 km/h (0 Bft) 97,30 %
21.06.2016 23:08 16,1 C 90 % 1022,4 hPa 0,0 l/m 0,0 km/h (0 Bft) O 81 0 min 0,000 mm 0,0 UV-I 0 W/m 14,5 C 16,1 C 0,0 km/h (0 Bft) 98,08 %
21.06.2016 23:10 16,1 C 91 % 1022,4 hPa 0,0 l/m 0,1 km/h (0 Bft) O 81 0 min 0,000 mm 0,0 UV-I 0 W/m 14,6 C 16,1 C 1,6 km/h (1 Bft) 97,87 %
21.06.2016 23:12 16,1 C 91 % 1022,5 hPa 0,0 l/m 0,3 km/h (0 Bft) O 81 0 min 0,000 mm 0,0 UV-I 0 W/m 14,6 C 16,1 C 1,6 km/h (1 Bft) 95,74 %
21.06.2016 23:14 16,1 C 91 % 1022,5 hPa 0,0 l/m 0,0 km/h (0 Bft) O 81 0 min 0,000 mm 0,0 UV-I 0 W/m 14,6 C 16,1 C 0,0 km/h (0 Bft) 97,92 %
21.06.2016 23:16 16,1 C 91 % 1022,5 hPa 0,0 l/m 0,0 km/h (0 Bft) O 81 0 min 0,000 mm 0,0 UV-I 0 W/m 14,6 C 16,1 C 0,0 km/h (0 Bft) 97,87 %
21.06.2016 23:18 16,1 C 91 % 1022,5 hPa 0,0 l/m 0,1 km/h (0 Bft) O 81 0 min 0,000 mm 0,0 UV-I 0 W/m 14,6 C 16,1 C 1,6 km/h (1 Bft) 97,87 %
21.06.2016 23:20 16,1 C 91 % 1022,4 hPa 0,0 l/m 0,0 km/h (0 Bft) O 81 0 min 0,000 mm 0,0 UV-I 0 W/m 14,6 C 16,1 C 0,0 km/h (0 Bft) 97,87 %
21.06.2016 23:22 16,1 C 91 % 1022,4 hPa 0,0 l/m 1,0 km/h (0 Bft) O 81 0 min 0,000 mm 0,0 UV-I 0 W/m 14,6 C 16,1 C 3,2 km/h (1 Bft) 97,87 %
21.06.2016 23:24 16,0 C 91 % 1022,4 hPa 0,0 l/m 2,3 km/h (1 Bft) O 81 0 min 0,000 mm 0,0 UV-I 0 W/m 14,5 C 16,0 C 3,2 km/h (1 Bft) 95,74 %
21.06.2016 23:26 15,9 C 91 % 1022,4 hPa 0,0 l/m 2,2 km/h (1 Bft) O 81 0 min 0,000 mm 0,0 UV-I 0 W/m 14,4 C 15,9 C 3,2 km/h (1 Bft) 97,96 %
21.06.2016 23:28 15,9 C 91 % 1022,4 hPa 0,0 l/m 2,1 km/h (1 Bft) O 81 0 min 0,000 mm 0,0 UV-I 0 W/m 14,4 C 15,9 C 3,2 km/h (1 Bft) 100,00 %
21.06.2016 23:30 15,9 C 92 % 1022,4 hPa 0,0 l/m 1,0 km/h (0 Bft) O 81 0 min 0,000 mm 0,0 UV-I 0 W/m 14,6 C 15,9 C 1,6 km/h (1 Bft) 98,00 %
21.06.2016 23:32 15,9 C 92 % 1022,4 hPa 0,0 l/m 0,9 km/h (0 Bft) O 81 0 min 0,000 mm 0,0 UV-I 0 W/m 14,6 C 15,9 C 3,2 km/h (1 Bft) 93,62 %
21.06.2016 23:34 15,9 C 92 % 1022,5 hPa 0,0 l/m 0,0 km/h (0 Bft) O 81 0 min 0,000 mm 0,0 UV-I 0 W/m 14,6 C 15,9 C 0,0 km/h (0 Bft) 100,00 %
21.06.2016 23:36 16,0 C 92 % 1022,5 hPa 0,0 l/m 0,0 km/h (0 Bft) O 81 0 min 0,000 mm 0,0 UV-I 0 W/m 14,7 C 16,0 C 0,0 km/h (0 Bft) 95,74 %
21.06.2016 23:38 15,9 C 92 % 1022,5 hPa 0,0 l/m 0,0 km/h (0 Bft) O 81 0 min 0,000 mm 0,0 UV-I 0 W/m 14,6 C 15,9 C 1,6 km/h (1 Bft) 100,00 %
21.06.2016 23:40 15,9 C 91 % 1022,5 hPa 0,0 l/m 0,3 km/h (0 Bft) O 81 0 min 0,000 mm 0,0 UV-I 0 W/m 14,4 C 15,9 C 1,6 km/h (1 Bft) 100,00 %
21.06.2016 23:42 15,8 C 91 % 1022,6 hPa 0,0 l/m 0,0 km/h (0 Bft) O 81 0 min 0,000 mm 0,0 UV-I 0 W/m 14,3 C 15,8 C 0,0 km/h (0 Bft) 100,00 %
21.06.2016 23:44 15,8 C 92 % 1022,6 hPa 0,0 l/m 0,0 km/h (0 Bft) O 81 0 min 0,000 mm 0,0 UV-I 0 W/m 14,5 C 15,8 C 0,0 km/h (0 Bft) 100,00 %
21.06.2016 23:46 15,8 C 92 % 1022,6 hPa 0,0 l/m 0,0 km/h (0 Bft) O 81 0 min 0,000 mm 0,0 UV-I 0 W/m 14,5 C 15,8 C 0,0 km/h (0 Bft) 100,00 %
21.06.2016 23:48 15,8 C 92 % 1022,6 hPa 0,0 l/m 0,0 km/h (0 Bft) O 81 0 min 0,000 mm 0,0 UV-I 0 W/m 14,5 C 15,8 C 0,0 km/h (0 Bft) 97,87 %
21.06.2016 23:50 15,8 C 92 % 1022,6 hPa 0,0 l/m 0,0 km/h (0 Bft) O 81 0 min 0,000 mm 0,0 UV-I 0 W/m 14,5 C 15,8 C 0,0 km/h (0 Bft) 100,00 %
21.06.2016 23:52 15,7 C 92 % 1022,6 hPa 0,0 l/m 0,0 km/h (0 Bft) O 81 0 min 0,000 mm 0,0 UV-I 0 W/m 14,4 C 15,7 C 0,0 km/h (0 Bft) 100,00 %
21.06.2016 23:54 15,7 C 92 % 1022,6 hPa 0,0 l/m 0,2 km/h (0 Bft) O 81 0 min 0,000 mm 0,0 UV-I 0 W/m 14,4 C 15,7 C 1,6 km/h (1 Bft) 100,00 %
21.06.2016 23:56 15,7 C 92 % 1022,6 hPa 0,0 l/m 0,0 km/h (0 Bft) O 81 0 min 0,000 mm 0,0 UV-I 0 W/m 14,4 C 15,7 C 0,0 km/h (0 Bft) 100,00 %
21.06.2016 23:58 15,7 C 92 % 1022,6 hPa 0,0 l/m 0,1 km/h (0 Bft) O 81 0 min 0,000 mm 0,0 UV-I 0 W/m 14,4 C 15,7 C 1,6 km/h (1 Bft) 100,00 %
_ Min-Zeit 05:12 16:48 02:32 - 00:34 - - - - - - 05:12 05:12 00:34 17:22
Minimum _ 10,5 C 61 % 1019,5 hPa - 0,0 km/h (0 Bft) - - - - - - 9,9 C 10,5 C 0,0 km/h (0 Bft) 89,36 %
_ Max-Zeit 19:24 05:58 23:42 00:00 09:52 - - 05:16 11:00 11:58 11:50 17:08 19:24 11:54 00:00
Maximum _ 22,5 C 97 % 1022,6 hPa 0,0 l/m 10,4 km/h
SW (2 Bft)
- - 2 min 0,457 mm 6,6 UV-I 990 W/m 16,4 C 22,5 C 17,7 km/h
W (3 Bft)
100,00 %
Durchschnitt _ 17,0 C 81 % 1021,2 hPa #0,0 l/m 2,3 km/h (1 Bft) W - #6:54 h #3,353 mm 3,2 UV-I 339 W/m 13,6 C 17,0 C 4,7 km/h (1 Bft) 98,35 %